Observation data for Tarzan on 11/09/2019      Previous  Date       Current Mesonet Observations  Soil Data  Daily Summary Page  Observations in Plain Language
KTA1 090600Z 20005KT 06/06 A3032 RMK A01 T00580058  RH  100%=      5-min Rain = 0
KTA1 090601Z 20005KT 06/06 A3032 RMK A01 T00580058  RH  100%=      5-min Rain = 0
KTA1 090602Z 20005KT 06/06 A3032 RMK A01 T00580058  RH  100%=      5-min Rain = 0
KTA1 090603Z 21006KT 06/06 A3032 RMK A01 T00570057  RH  100%=      5-min Rain = 0
KTA1 090604Z 21006KT 06/06 A3032 RMK A01 T00570057  RH  100%=      5-min Rain = 0
KTA1 090605Z 21006KT 06/06 A3032 RMK A01 T00570057  RH  100%=      5-min Rain = 0
KTA1 090606Z 21006KT 06/06 A3032 RMK A01 T00570057  RH  100%=      5-min Rain = 0
KTA1 090607Z 21006KT 06/06 A3032 RMK A01 T00570057  RH  100%=      5-min Rain = 0
KTA1 090608Z 21005KT 06/06 A3032 RMK A01 T00570057  RH  100%=      5-min Rain = 0
KTA1 090609Z 21005KT 06/06 A3031 RMK A01 T00570057  RH  100%=      5-min Rain = 0
KTA1 090610Z 20005KT 06/06 A3031 RMK A01 T00560056  RH  100%=      5-min Rain = 0
KTA1 090611Z 21006KT 06/06 A3032 RMK A01 T00560057  RH  100%=      5-min Rain = 0
KTA1 090612Z 21005KT 06/06 A3032 RMK A01 T00560056  RH  100%=      5-min Rain = 0
KTA1 090613Z 22005KT 06/06 A3032 RMK A01 T00570057  RH  100%=      5-min Rain = 0
KTA1 090614Z 22005KT 06/06 A3032 RMK A01 T00570057  RH  100%=      5-min Rain = 0
KTA1 090615Z 22006KT 06/06 A3032 RMK A01 T00560056  RH  100%=      5-min Rain = 0
KTA1 090616Z 21005KT 06/06 A3032 RMK A01 T00560056  RH  100%=      5-min Rain = 0
KTA1 090617Z 21006KT 06/06 A3032 RMK A01 T00560056  RH  100%=      5-min Rain = 0
KTA1 090618Z 21005KT 06/06 A3031 RMK A01 T00560056  RH  100%=      5-min Rain = 0
KTA1 090619Z 21005KT 06/06 A3031 RMK A01 T00560056  RH  100%=      5-min Rain = 0
KTA1 090620Z 21005KT 06/06 A3031 RMK A01 T00560056  RH  100%=      5-min Rain = 0
KTA1 090621Z 22005KT 06/06 A3032 RMK A01 T00560056  RH  100%=      5-min Rain = 0
KTA1 090622Z 21005KT 06/06 A3032 RMK A01 T00560056  RH  100%=      5-min Rain = 0
KTA1 090623Z 22006KT 06/06 A3032 RMK A01 T00560056  RH  100%=      5-min Rain = 0
KTA1 090624Z 21005KT 06/06 A3032 RMK A01 T00560056  RH  100%=      5-min Rain = 0
KTA1 090625Z 21005KT 06/06 A3031 RMK A01 T00560056  RH  100%=      5-min Rain = 0
KTA1 090626Z 21005KT 06/06 A3031 RMK A01 T00560056  RH  100%=      5-min Rain = 0
KTA1 090627Z 21005KT 06/06 A3031 RMK A01 T00560056  RH  100%=      5-min Rain = 0
KTA1 090628Z 21005KT 06/06 A3031 RMK A01 T00560056  RH  100%=      5-min Rain = 0
KTA1 090629Z 21005KT 06/06 A3031 RMK A01 T00560056  RH  100%=      5-min Rain = 0
KTA1 090630Z 22005KT 06/06 A3031 RMK A01 T00560056  RH  100%=      5-min Rain = 0
KTA1 090631Z 22005KT 06/06 A3031 RMK A01 T00560056  RH  100%=      5-min Rain = 0
KTA1 090632Z 22005KT 06/06 A3031 RMK A01 T00560056  RH  100%=      5-min Rain = 0
KTA1 090633Z 22005KT 06/06 A3031 RMK A01 T00560056  RH  100%=      5-min Rain = 0
KTA1 090634Z 22004KT 06/06 A3031 RMK A01 T00560056  RH  100%=      5-min Rain = 0
KTA1 090635Z 22004KT 06/06 A3031 RMK A01 T00560056  RH  100%=      5-min Rain = 0
KTA1 090636Z 22004KT 06/06 A3031 RMK A01 T00560056  RH  100%=      5-min Rain = 0
KTA1 090637Z 21004KT 06/06 A3031 RMK A01 T00560056  RH  100%=      5-min Rain = 0
KTA1 090638Z 21004KT 06/06 A3031 RMK A01 T00560056  RH  100%=      5-min Rain = 0
KTA1 090639Z 21004KT 06/06 A3031 RMK A01 T00560056  RH  100%=      5-min Rain = 0
KTA1 090640Z 22004KT 06/06 A3031 RMK A01 T00550055  RH  100%=      5-min Rain = 0
KTA1 090641Z 22004KT 06/06 A3031 RMK A01 T00560056  RH  100%=      5-min Rain = 0
KTA1 090642Z 23004KT 06/06 A3031 RMK A01 T00550055  RH  100%=      5-min Rain = 0
KTA1 090643Z 23004KT 06/06 A3031 RMK A01 T00550055  RH  100%=      5-min Rain = 0
KTA1 090644Z 22004KT 05/05 A3031 RMK A01 T00540054  RH  100%=      5-min Rain = 0
KTA1 090645Z 22004KT 05/05 A3031 RMK A01 T00540054  RH  100%=      5-min Rain = 0
KTA1 090646Z 22004KT 05/05 A3031 RMK A01 T00530053  RH  100%=      5-min Rain = 0
KTA1 090647Z 22004KT 05/05 A3031 RMK A01 T00530053  RH  100%=      5-min Rain = 0
KTA1 090648Z 22004KT 05/05 A3031 RMK A01 T00530053  RH  100%=      5-min Rain = 0
KTA1 090649Z 22004KT 05/05 A3031 RMK A01 T00530053  RH  100%=      5-min Rain = 0
KTA1 090650Z 23003KT 05/05 A3031 RMK A01 T00530053  RH  100%=      5-min Rain = 0
KTA1 090651Z 23003KT 05/05 A3031 RMK A01 T00520052  RH  100%=      5-min Rain = 0
KTA1 090652Z 23003KT 05/05 A3031 RMK A01 T00520052  RH  100%=      5-min Rain = 0
KTA1 090653Z 23003KT 05/05 A3031 RMK A01 T00510051  RH  100%=      5-min Rain = 0
KTA1 090654Z 23003KT 05/05 A3031 RMK A01 T00510051  RH  100%=      5-min Rain = 0
KTA1 090655Z 24002KT 05/05 A3031 RMK A01 T00500050  RH  100%=      5-min Rain = 0
KTA1 090656Z 24003KT 05/05 A3031 RMK A01 T00500050  RH  100%=      5-min Rain = 0
KTA1 090657Z 24002KT 05/05 A3031 RMK A01 T00500050  RH  100%=      5-min Rain = 0
KTA1 090658Z 24002KT 05/05 A3031 RMK A01 T00500050  RH  100%=      5-min Rain = 0
KTA1 090659Z 24002KT 05/05 A3031 RMK A01 T00490049  RH  100%=      5-min Rain = 0
KTA1 090700Z 25003KT 05/05 A3031 RMK A01 T00490049  RH  100%=      5-min Rain = 0
KTA1 090701Z 25003KT 05/05 A3031 RMK A01 T00490049  RH  100%=      5-min Rain = 0
KTA1 090702Z 25003KT 05/05 A3031 RMK A01 T00480049  RH  100%=      5-min Rain = 0
KTA1 090703Z 25003KT 05/05 A3031 RMK A01 T00490049  RH  100%=      5-min Rain = 0
KTA1 090704Z 25003KT 05/05 A3031 RMK A01 T00480048  RH  100%=      5-min Rain = 0
KTA1 090705Z 25003KT 05/05 A3031 RMK A01 T00480048  RH  100%=      5-min Rain = 0
KTA1 090706Z 25003KT 05/05 A3031 RMK A01 T00480048  RH  100%=      5-min Rain = 0
KTA1 090707Z 25003KT 05/05 A3031 RMK A01 T00480048  RH  100%=      5-min Rain = 0
KTA1 090708Z 25003KT 05/05 A3031 RMK A01 T00480048  RH  100%=      5-min Rain = 0
KTA1 090709Z 25003KT 05/05 A3031 RMK A01 T00480048  RH  100%=      5-min Rain = 0
KTA1 090710Z 25003KT 05/05 A3031 RMK A01 T00470047  RH  100%=      5-min Rain = 0
KTA1 090711Z 25003KT 05/05 A3031 RMK A01 T00470047  RH  100%=      5-min Rain = 0
KTA1 090712Z 25003KT 05/05 A3031 RMK A01 T00470047  RH  100%=      5-min Rain = 0
KTA1 090713Z 26003KT 05/05 A3031 RMK A01 T00470047  RH  100%=      5-min Rain = 0
KTA1 090714Z 27003KT 05/05 A3031 RMK A01 T00470047  RH  100%=      5-min Rain = 0
KTA1 090715Z 27003KT 05/05 A3031 RMK A01 T00460046  RH  100%=      5-min Rain = 0
KTA1 090722Z 27003KT 05/05 A3031 RMK A01 T00450045  RH  100%=      5-min Rain = 0
KTA1 090723Z 27004KT 05/05 A3031 RMK A01 T00450045  RH  100%=      5-min Rain = 0
KTA1 090724Z 27004KT 05/05 A3031 RMK A01 T00450045  RH  100%=      5-min Rain = 0
KTA1 090725Z 27004KT 04/04 A3031 RMK A01 T00440044  RH  100%=      5-min Rain = 0
KTA1 090726Z 27004KT 04/04 A3031 RMK A01 T00440044  RH  100%=      5-min Rain = 0
KTA1 090727Z 28004KT 05/05 A3031 RMK A01 T00450045  RH  100%=      5-min Rain = 0
KTA1 090728Z 29005KT 04/04 A3031 RMK A01 T00440044  RH  100%=      5-min Rain = 0
KTA1 090729Z 28005KT 04/04 A3031 RMK A01 T00440044  RH  100%=      5-min Rain = 0
KTA1 090730Z 28005KT 04/04 A3031 RMK A01 T00440044  RH  100%=      5-min Rain = 0
KTA1 090731Z 28005KT 04/04 A3031 RMK A01 T00440044  RH  100%=      5-min Rain = 0
KTA1 090732Z 28005KT 04/04 A3031 RMK A01 T00440044  RH  100%=      5-min Rain = 0
KTA1 090733Z 27004KT 05/05 A3031 RMK A01 T00450045  RH  100%=      5-min Rain = 0
KTA1 090734Z 27004KT 04/04 A3031 RMK A01 T00440044  RH  100%=      5-min Rain = 0
KTA1 090735Z 27004KT 05/05 A3031 RMK A01 T00450045  RH  100%=      5-min Rain = 0
KTA1 090736Z 27004KT 05/05 A3031 RMK A01 T00450045  RH  100%=      5-min Rain = 0
KTA1 090737Z 27004KT 05/05 A3031 RMK A01 T00450045  RH  100%=      5-min Rain = 0
KTA1 090738Z 27004KT 05/05 A3031 RMK A01 T00450045  RH  100%=      5-min Rain = 0
KTA1 090739Z 27004KT 05/05 A3031 RMK A01 T00450045  RH  100%=      5-min Rain = 0
KTA1 090740Z 27004KT 05/05 A3031 RMK A01 T00450045  RH  100%=      5-min Rain = 0
KTA1 090741Z 27004KT 05/05 A3031 RMK A01 T00450045  RH  100%=      5-min Rain = 0
KTA1 090742Z 26004KT 04/04 A3031 RMK A01 T00440044  RH  100%=      5-min Rain = 0
KTA1 090743Z 26004KT 04/04 A3031 RMK A01 T00440044  RH  100%=      5-min Rain = 0
KTA1 090744Z 26004KT 04/04 A3031 RMK A01 T00440044  RH  100%=      5-min Rain = 0
KTA1 090745Z 26005KT 04/04 A303 RMK A01 T00440044  RH  100%=      5-min Rain = 0
KTA1 090746Z 26004KT 04/04 A303 RMK A01 T00440044  RH  100%=      5-min Rain = 0
KTA1 090747Z 26004KT 04/04 A303 RMK A01 T00440044  RH  100%=      5-min Rain = 0
KTA1 090748Z 26004KT 04/04 A303 RMK A01 T00430043  RH  100%=      5-min Rain = 0
KTA1 090749Z 26003KT 04/04 A303 RMK A01 T00430043  RH  100%=      5-min Rain = 0
KTA1 090750Z 26003KT 04/04 A303 RMK A01 T00430043  RH  100%=      5-min Rain = 0
KTA1 090751Z 26003KT 04/04 A303 RMK A01 T00430043  RH  100%=      5-min Rain = 0
KTA1 090752Z 26004KT 04/04 A303 RMK A01 T00430043  RH  100%=      5-min Rain = 0
KTA1 090753Z 26004KT 04/04 A303 RMK A01 T00430043  RH  100%=      5-min Rain = 0
KTA1 090754Z 26004KT 04/04 A303 RMK A01 T00430043  RH  100%=      5-min Rain = 0
KTA1 090755Z 26004KT 04/04 A303 RMK A01 T00420042  RH  100%=      5-min Rain = 0
KTA1 090756Z 26004KT 04/04 A303 RMK A01 T00420042  RH  100%=      5-min Rain = 0
KTA1 090757Z 26004KT 04/04 A303 RMK A01 T00420042  RH  100%=      5-min Rain = 0
KTA1 090758Z 27004KT 04/04 A303 RMK A01 T00420042  RH  100%=      5-min Rain = 0
KTA1 090759Z 27004KT 04/04 A303 RMK A01 T00410041  RH  100%=      5-min Rain = 0
KTA1 090800Z 27004KT 04/04 A303 RMK A01 T00410041  RH  100%=      5-min Rain = 0
KTA1 090801Z 27004KT 04/04 A303 RMK A01 T00410041  RH  100%=      5-min Rain = 0
KTA1 090802Z 27004KT 04/04 A303 RMK A01 T00410041  RH  100%=      5-min Rain = 0
KTA1 090803Z 27004KT 04/04 A303 RMK A01 T00410041  RH  100%=      5-min Rain = 0
KTA1 090804Z 27004KT 04/04 A303 RMK A01 T00410041  RH  100%=      5-min Rain = 0
KTA1 090805Z 27004KT 04/04 A303 RMK A01 T00420042  RH  100%=      5-min Rain = 0
KTA1 090806Z 27004KT 04/04 A3029 RMK A01 T00410041  RH  100%=      5-min Rain = 0
KTA1 090807Z 27003KT 04/04 A3029 RMK A01 T00410041  RH  100%=      5-min Rain = 0
KTA1 090808Z 27003KT 04/04 A3029 RMK A01 T00420042  RH  100%=      5-min Rain = 0
KTA1 090809Z 28003KT 04/04 A3029 RMK A01 T00420042  RH  100%=      5-min Rain = 0
KTA1 090810Z 28003KT 04/04 A3029 RMK A01 T00420042  RH  100%=      5-min Rain = 0
KTA1 090811Z 29003KT 04/04 A303 RMK A01 T00420042  RH  100%=      5-min Rain = 0
KTA1 090812Z 29004KT 04/04 A303 RMK A01 T00420042  RH  100%=      5-min Rain = 0
KTA1 090813Z 29003KT 04/04 A303 RMK A01 T00420042  RH  100%=      5-min Rain = 0
KTA1 090814Z 29003KT 04/04 A303 RMK A01 T00420042  RH  100%=      5-min Rain = 0
KTA1 090815Z 29003KT 04/04 A303 RMK A01 T00420042  RH  100%=      5-min Rain = 0
KTA1 090816Z 28003KT 04/04 A303 RMK A01 T00420042  RH  100%=      5-min Rain = 0
KTA1 090817Z 28002KT 04/04 A303 RMK A01 T00420042  RH  100%=      5-min Rain = 0
KTA1 090818Z 27003KT 04/04 A303 RMK A01 T00420042  RH  100%=      5-min Rain = 0
KTA1 090819Z 27003KT 04/04 A303 RMK A01 T00420042  RH  100%=      5-min Rain = 0
KTA1 090820Z 28003KT 04/04 A303 RMK A01 T00420042  RH  100%=      5-min Rain = 0
KTA1 090821Z 28003KT 04/04 A303 RMK A01 T00420042  RH  100%=      5-min Rain = 0
KTA1 090822Z 28003KT 04/04 A303 RMK A01 T00420042  RH  100%=      5-min Rain = 0
KTA1 090823Z 28002KT 04/04 A3029 RMK A01 T00420042  RH  100%=      5-min Rain = 0
KTA1 090824Z 28002KT 04/04 A3029 RMK A01 T00420042  RH  100%=      5-min Rain = 0
KTA1 090825Z 28002KT 04/04 A3029 RMK A01 T00410041  RH  100%=      5-min Rain = 0
KTA1 090826Z 28002KT 04/04 A3029 RMK A01 T00410041  RH  100%=      5-min Rain = 0
KTA1 090827Z 28002KT 04/04 A3029 RMK A01 T00410041  RH  100%=      5-min Rain = 0
KTA1 090828Z 28002KT 04/04 A3029 RMK A01 T00410041  RH  100%=      5-min Rain = 0
KTA1 090829Z 28002KT 04/04 A3029 RMK A01 T00400040  RH  100%=      5-min Rain = 0
KTA1 090830Z 29001KT 04/04 A3029 RMK A01 T00400040  RH  100%=      5-min Rain = 0
KTA1 090831Z 29001KT 04/04 A3029 RMK A01 T00390039  RH  100%=      5-min Rain = 0
KTA1 090832Z 29001KT 04/04 A3029 RMK A01 T00390039  RH  100%=      5-min Rain = 0
KTA1 090833Z 29001KT 04/04 A3029 RMK A01 T00390039  RH  100%=      5-min Rain = 0
KTA1 090834Z 29001KT 04/04 A3029 RMK A01 T00390039  RH  100%=      5-min Rain = 0
KTA1 090835Z 28001KT 04/04 A3029 RMK A01 T00390039  RH  100%=      5-min Rain = 0
KTA1 090836Z 28001KT 04/04 A3029 RMK A01 T00390038  RH  100%=      5-min Rain = 0
KTA1 090837Z 27002KT 04/04 A3029 RMK A01 T00380038  RH  100%=      5-min Rain = 0
KTA1 090838Z 27002KT 04/04 A3029 RMK A01 T00380038  RH  100%=      5-min Rain = 0
KTA1 090839Z 27002KT 04/04 A3029 RMK A01 T00390039  RH  100%=      5-min Rain = 0
KTA1 090840Z 27002KT 04/04 A3029 RMK A01 T00390039  RH  100%=      5-min Rain = 0
KTA1 090841Z 27003KT 04/04 A3029 RMK A01 T00390039  RH  100%=      5-min Rain = 0
KTA1 090842Z 26003KT 04/04 A3029 RMK A01 T00380038  RH  100%=      5-min Rain = 0
KTA1 090843Z 26002KT 04/04 A3029 RMK A01 T00380038  RH  100%=      5-min Rain = 0
KTA1 090844Z 26002KT 04/04 A3029 RMK A01 T00380038  RH  100%=      5-min Rain = 0
KTA1 090845Z 26002KT 04/04 A3029 RMK A01 T00380038  RH  100%=      5-min Rain = 0
KTA1 090846Z 26002KT 04/04 A3029 RMK A01 T00380038  RH  100%=      5-min Rain = 0
KTA1 090847Z 26003KT 04/04 A3029 RMK A01 T00390039  RH  100%=      5-min Rain = 0
KTA1 090848Z 26003KT 04/04 A3029 RMK A01 T00380038  RH  100%=      5-min Rain = 0
KTA1 090849Z 27003KT 04/04 A3029 RMK A01 T00380038  RH  100%=      5-min Rain = 0
KTA1 090850Z 27003KT 04/04 A3029 RMK A01 T00370037  RH  100%=      5-min Rain = 0
KTA1 090851Z 27004KT 04/04 A3029 RMK A01 T00370037  RH  100%=      5-min Rain = 0
KTA1 090852Z 27004KT 04/04 A3029 RMK A01 T00360036  RH  100%=      5-min Rain = 0
KTA1 090853Z 27003KT 04/04 A3029 RMK A01 T00350035  RH  100%=      5-min Rain = 0
KTA1 090854Z 27003KT 04/04 A3029 RMK A01 T00350035  RH  100%=      5-min Rain = 0
KTA1 090855Z 27003KT 04/04 A3029 RMK A01 T00350035  RH  100%=      5-min Rain = 0
KTA1 090856Z 27003KT 03/03 A3029 RMK A01 T00340034  RH  100%=      5-min Rain = 0
KTA1 090857Z 27004KT 03/03 A3029 RMK A01 T00340034  RH  100%=      5-min Rain = 0
KTA1 090858Z 27004KT 03/03 A3029 RMK A01 T00330033  RH  100%=      5-min Rain = 0
KTA1 090859Z 28004KT 03/03 A3029 RMK A01 T00340034  RH  100%=      5-min Rain = 0
KTA1 090900Z 28004KT 03/03 A3029 RMK A01 T00340034  RH  100%=      5-min Rain = 0
KTA1 090901Z 28004KT 03/03 A3028 RMK A01 T00340034  RH  100%=      5-min Rain = 0
KTA1 090902Z 28004KT 03/03 A3028 RMK A01 T00340034  RH  100%=      5-min Rain = 0
KTA1 090903Z 28004KT 03/03 A3028 RMK A01 T00340034  RH  100%=      5-min Rain = 0
KTA1 090904Z 28004KT 04/04 A3028 RMK A01 T00350035  RH  100%=      5-min Rain = 0
KTA1 090905Z 28005KT 04/04 A3028 RMK A01 T00350035  RH  100%=      5-min Rain = 0
KTA1 090906Z 28005KT 04/04 A3028 RMK A01 T00350035  RH  100%=      5-min Rain = 0
KTA1 090907Z 28005KT 04/04 A3028 RMK A01 T00350035  RH  100%=      5-min Rain = 0
KTA1 090908Z 28005KT 04/04 A3028 RMK A01 T00360036  RH  100%=      5-min Rain = 0
KTA1 090909Z 28005KT 04/04 A3028 RMK A01 T00360036  RH  100%=      5-min Rain = 0
KTA1 090910Z 28005KT 04/04 A3028 RMK A01 T00360036  RH  100%=      5-min Rain = 0
KTA1 090911Z 28005KT 04/04 A3028 RMK A01 T00360036  RH  100%=      5-min Rain = 0
KTA1 090912Z 28005KT 04/04 A3028 RMK A01 T00360036  RH  100%=      5-min Rain = 0
KTA1 090913Z 28005KT 04/04 A3028 RMK A01 T00370037  RH  100%=      5-min Rain = 0
KTA1 090914Z 28005KT 04/04 A3028 RMK A01 T00370037  RH  100%=      5-min Rain = 0
KTA1 090915Z 28005KT 04/04 A3028 RMK A01 T00370037  RH  100%=      5-min Rain = 0
KTA1 090916Z 28005KT 04/04 A3028 RMK A01 T00380037  RH  100%=      5-min Rain = 0
KTA1 090917Z 28005KT 04/04 A3028 RMK A01 T00380038  RH  100%=      5-min Rain = 0
KTA1 090918Z 29005KT 04/04 A3028 RMK A01 T00390039  RH  100%=      5-min Rain = 0
KTA1 090919Z 28005KT 04/04 A3028 RMK A01 T00390039  RH  100%=      5-min Rain = 0
KTA1 090920Z 28005KT 04/04 A3028 RMK A01 T00390039  RH  100%=      5-min Rain = 0
KTA1 090921Z 28005KT 04/04 A3028 RMK A01 T00390039  RH  100%=      5-min Rain = 0
KTA1 090922Z 28004KT 04/04 A3028 RMK A01 T00390039  RH  100%=      5-min Rain = 0
KTA1 090923Z 28004KT 04/04 A3028 RMK A01 T00400040  RH  100%=      5-min Rain = 0
KTA1 090924Z 28004KT 04/04 A3028 RMK A01 T00400040  RH  100%=      5-min Rain = 0
KTA1 090925Z 28005KT 04/04 A3028 RMK A01 T00390039  RH  100%=      5-min Rain = 0
KTA1 090926Z 28004KT 04/04 A3028 RMK A01 T00400040  RH  100%=      5-min Rain = 0
KTA1 090927Z 27004KT 04/04 A3028 RMK A01 T00400040  RH  100%=      5-min Rain = 0
KTA1 090928Z 27003KT 04/04 A3028 RMK A01 T00390039  RH  100%=      5-min Rain = 0
KTA1 090929Z 27003KT 04/04 A3028 RMK A01 T00390039  RH  100%=      5-min Rain = 0
KTA1 090930Z 27003KT 04/04 A3028 RMK A01 T00400040  RH  100%=      5-min Rain = 0
KTA1 090931Z 27004KT 04/04 A3028 RMK A01 T00400040  RH  100%=      5-min Rain = 0
KTA1 090932Z 27004KT 04/04 A3028 RMK A01 T00390039  RH  100%=      5-min Rain = 0
KTA1 090933Z 27004KT 04/04 A3028 RMK A01 T00390039  RH  100%=      5-min Rain = 0
KTA1 090934Z 26004KT 04/04 A3028 RMK A01 T00390039  RH  100%=      5-min Rain = 0
KTA1 090935Z 26004KT 04/04 A3028 RMK A01 T00390039  RH  100%=      5-min Rain = 0
KTA1 090936Z 26004KT 04/04 A3028 RMK A01 T00390039  RH  100%=      5-min Rain = 0
KTA1 090937Z 26004KT 04/04 A3028 RMK A01 T00380038  RH  100%=      5-min Rain = 0
KTA1 090938Z 26004KT 04/04 A3028 RMK A01 T00390039  RH  100%=      5-min Rain = 0
KTA1 090939Z 26004KT 04/04 A3028 RMK A01 T00380038  RH  100%=      5-min Rain = 0
KTA1 090940Z 26004KT 04/04 A3027 RMK A01 T00380038  RH  100%=      5-min Rain = 0
KTA1 090941Z 26004KT 04/04 A3027 RMK A01 T00380038  RH  100%=      5-min Rain = 0
KTA1 090942Z 26004KT 04/04 A3027 RMK A01 T00380038  RH  100%=      5-min Rain = 0
KTA1 090943Z 26004KT 04/04 A3027 RMK A01 T00380038  RH  100%=      5-min Rain = 0
KTA1 090944Z 26004KT 04/04 A3027 RMK A01 T00380038  RH  100%=      5-min Rain = 0
KTA1 090945Z 26004KT 04/04 A3027 RMK A01 T00370037  RH  100%=      5-min Rain = 0
KTA1 090946Z 26004KT 04/04 A3027 RMK A01 T00370037  RH  100%=      5-min Rain = 0
KTA1 090947Z 26004KT 04/04 A3027 RMK A01 T00360036  RH  100%=      5-min Rain = 0
KTA1 090948Z 26004KT 04/04 A3027 RMK A01 T00360036  RH  100%=      5-min Rain = 0
KTA1 090949Z 26004KT 04/04 A3027 RMK A01 T00350035  RH  100%=      5-min Rain = 0
KTA1 090950Z 26004KT 04/04 A3027 RMK A01 T00350035  RH  100%=      5-min Rain = 0
KTA1 090951Z 26004KT 04/04 A3027 RMK A01 T00350035  RH  100%=      5-min Rain = 0
KTA1 090952Z 26004KT 04/04 A3027 RMK A01 T00350035  RH  100%=      5-min Rain = 0
KTA1 090953Z 26004KT 04/04 A3027 RMK A01 T00350035  RH  100%=      5-min Rain = 0
KTA1 090954Z 26004KT 04/04 A3027 RMK A01 T00350035  RH  100%=      5-min Rain = 0
KTA1 090955Z 26004KT 04/04 A3027 RMK A01 T00350035  RH  100%=      5-min Rain = 0
KTA1 090956Z 26003KT 03/03 A3027 RMK A01 T00340034  RH  100%=      5-min Rain = 0
KTA1 090957Z 27004KT 03/03 A3027 RMK A01 T00340034  RH  100%=      5-min Rain = 0
KTA1 090958Z 27004KT 03/03 A3027 RMK A01 T00340034  RH  100%=      5-min Rain = 0
KTA1 090959Z 27004KT 03/03 A3027 RMK A01 T00340034  RH  100%=      5-min Rain = 0
KTA1 091000Z 27004KT 03/03 A3027 RMK A01 T00340034  RH  100%=      5-min Rain = 0
KTA1 091001Z 27004KT 03/03 A3027 RMK A01 T00330033  RH  100%=      5-min Rain = 0
KTA1 091002Z 27004KT 03/03 A3027 RMK A01 T00340034  RH  100%=      5-min Rain = 0
KTA1 091003Z 27004KT 03/03 A3027 RMK A01 T00340034  RH  100%=      5-min Rain = 0
KTA1 091004Z 27004KT 03/03 A3027 RMK A01 T00330033  RH  100%=      5-min Rain = 0
KTA1 091005Z 27004KT 03/03 A3027 RMK A01 T00330033  RH  100%=      5-min Rain = 0
KTA1 091006Z 27004KT 03/03 A3027 RMK A01 T00330033  RH  100%=      5-min Rain = 0
KTA1 091007Z 27005KT 03/03 A3027 RMK A01 T00330033  RH  100%=      5-min Rain = 0
KTA1 091008Z 27004KT 03/03 A3027 RMK A01 T00330033  RH  100%=      5-min Rain = 0
KTA1 091009Z 27005KT 03/03 A3027 RMK A01 T00330033  RH  100%=      5-min Rain = 0
KTA1 091010Z 27004KT 03/03 A3027 RMK A01 T00330033  RH  100%=      5-min Rain = 0
KTA1 091011Z 27005KT 03/03 A3027 RMK A01 T00330033  RH  100%=      5-min Rain = 0
KTA1 091012Z 27005KT 03/03 A3027 RMK A01 T00330033  RH  100%=      5-min Rain = 0
KTA1 091013Z 27005KT 03/03 A3027 RMK A01 T00330033  RH  100%=      5-min Rain = 0
KTA1 091014Z 26005KT 03/03 A3027 RMK A01 T00330033  RH  100%=      5-min Rain = 0
KTA1 091015Z 26005KT 03/03 A3027 RMK A01 T00330033  RH  100%=      5-min Rain = 0
KTA1 091016Z 26005KT 03/03 A3027 RMK A01 T00330033  RH  100%=      5-min Rain = 0
KTA1 091017Z 26005KT 03/03 A3027 RMK A01 T00330033  RH  100%=      5-min Rain = 0
KTA1 091018Z 26005KT 03/03 A3027 RMK A01 T00330033  RH  100%=      5-min Rain = 0
KTA1 091019Z 26005KT 03/03 A3027 RMK A01 T00330033  RH  100%=      5-min Rain = 0
KTA1 091020Z 26005KT 03/03 A3027 RMK A01 T00330033  RH  100%=      5-min Rain = 0
KTA1 091021Z 27005KT 03/03 A3027 RMK A01 T00330033  RH  100%=      5-min Rain = 0
KTA1 091022Z 27005KT 03/03 A3027 RMK A01 T00330033  RH  100%=      5-min Rain = 0
KTA1 091023Z 26005KT 03/03 A3027 RMK A01 T00320032  RH  100%=      5-min Rain = 0
KTA1 091024Z 26005KT 03/03 A3027 RMK A01 T00330033  RH  100%=      5-min Rain = 0
KTA1 091025Z 26004KT 03/03 A3027 RMK A01 T00330033  RH  100%=      5-min Rain = 0
KTA1 091026Z 27004KT 03/03 A3027 RMK A01 T00330033  RH  100%=      5-min Rain = 0
KTA1 091027Z 27004KT 03/03 A3027 RMK A01 T00330033  RH  100%=      5-min Rain = 0
KTA1 091028Z 27004KT 03/03 A3027 RMK A01 T00320032  RH  100%=      5-min Rain = 0
KTA1 091029Z 27004KT 03/03 A3027 RMK A01 T00330033  RH  100%=      5-min Rain = 0
KTA1 091030Z 28004KT 03/03 A3027 RMK A01 T00330033  RH  100%=      5-min Rain = 0
KTA1 091031Z 28005KT 03/03 A3027 RMK A01 T00330033  RH  100%=      5-min Rain = 0
KTA1 091032Z 28005KT 03/03 A3027 RMK A01 T00330033  RH  100%=      5-min Rain = 0
KTA1 091033Z 28005KT 03/03 A3027 RMK A01 T00330033  RH  100%=      5-min Rain = 0
KTA1 091034Z 29005KT 03/03 A3027 RMK A01 T00330033  RH  100%=      5-min Rain = 0
KTA1 091035Z 29005KT 03/03 A3027 RMK A01 T00330033  RH  100%=      5-min Rain = 0
KTA1 091036Z 29005KT 03/03 A3027 RMK A01 T00330033  RH  100%=      5-min Rain = 0
KTA1 091037Z 28005KT 03/03 A3027 RMK A01 T00330033  RH  100%=      5-min Rain = 0
KTA1 091038Z 29005KT 03/03 A3027 RMK A01 T00340034  RH  100%=      5-min Rain = 0
KTA1 091039Z 29005KT 03/03 A3027 RMK A01 T00340034  RH  100%=      5-min Rain = 0
KTA1 091040Z 29005KT 03/03 A3027 RMK A01 T00340034  RH  100%=      5-min Rain = 0
KTA1 091041Z 29005KT 03/03 A3027 RMK A01 T00340034  RH  100%=      5-min Rain = 0
KTA1 091042Z 29005KT 03/03 A3027 RMK A01 T00340034  RH  100%=      5-min Rain = 0
KTA1 091043Z 29005KT 04/04 A3027 RMK A01 T00350035  RH  100%=      5-min Rain = 0
KTA1 091044Z 29005KT 04/04 A3027 RMK A01 T00350035  RH  100%=      5-min Rain = 0
KTA1 091045Z 29006KT 04/04 A3027 RMK A01 T00350035  RH  100%=      5-min Rain = 0
KTA1 091046Z 29005KT 04/04 A3027 RMK A01 T00350035  RH  100%=      5-min Rain = 0
KTA1 091047Z 28005KT 04/04 A3027 RMK A01 T00350035  RH  100%=      5-min Rain = 0
KTA1 091048Z 28005KT 04/04 A3027 RMK A01 T00350035  RH  100%=      5-min Rain = 0
KTA1 091049Z 27005KT 04/04 A3027 RMK A01 T00360036  RH  100%=      5-min Rain = 0
KTA1 091050Z 27004KT 04/04 A3027 RMK A01 T00360036  RH  100%=      5-min Rain = 0
KTA1 091051Z 27004KT 04/04 A3027 RMK A01 T00360036  RH  100%=      5-min Rain = 0
KTA1 091052Z 27004KT 04/04 A3027 RMK A01 T00360036  RH  100%=      5-min Rain = 0
KTA1 091053Z 27004KT 04/04 A3027 RMK A01 T00360036  RH  100%=      5-min Rain = 0
KTA1 091054Z 27005KT 04/04 A3027 RMK A01 T00360036  RH  100%=      5-min Rain = 0
KTA1 091055Z 27005KT 04/04 A3027 RMK A01 T00360036  RH  100%=      5-min Rain = 0
KTA1 091056Z 28004KT 04/04 A3027 RMK A01 T00360035  RH  100%=      5-min Rain = 0
KTA1 091057Z 27005KT 04/04 A3027 RMK A01 T00350035  RH  100%=      5-min Rain = 0
KTA1 091058Z 27004KT 04/04 A3027 RMK A01 T00350035  RH  100%=      5-min Rain = 0
KTA1 091059Z 27005KT 04/04 A3027 RMK A01 T00350035  RH  100%=      5-min Rain = 0
KTA1 091100Z 27005KT 04/04 A3027 RMK A01 T00350035  RH  100%=      5-min Rain = 0
KTA1 091101Z 27005KT 04/04 A3027 RMK A01 T00350035  RH  100%=      5-min Rain = 0
KTA1 091102Z 27004KT 04/04 A3027 RMK A01 T00350035  RH  100%=      5-min Rain = 0
KTA1 091103Z 27004KT 04/04 A3027 RMK A01 T00350035  RH  100%=      5-min Rain = 0
KTA1 091104Z 27004KT 04/04 A3027 RMK A01 T00350035  RH  100%=      5-min Rain = 0
KTA1 091105Z 27004KT 03/03 A3027 RMK A01 T00340034  RH  100%=      5-min Rain = 0
KTA1 091106Z 27004KT 03/03 A3027 RMK A01 T00340034  RH  100%=      5-min Rain = 0
KTA1 091107Z 27004KT 03/03 A3027 RMK A01 T00340034  RH  100%=      5-min Rain = 0
KTA1 091108Z 28004KT 03/03 A3027 RMK A01 T00340034  RH  100%=      5-min Rain = 0
KTA1 091109Z 28004KT 03/03 A3027 RMK A01 T00340034  RH  100%=      5-min Rain = 0
KTA1 091110Z 28003KT 03/03 A3027 RMK A01 T00340034  RH  100%=      5-min Rain = 0
KTA1 091111Z 28003KT 03/03 A3027 RMK A01 T00330033  RH  100%=      5-min Rain = 0
KTA1 091112Z 28004KT 03/03 A3027 RMK A01 T00330033  RH  100%=      5-min Rain = 0
KTA1 091113Z 29004KT 03/03 A3027 RMK A01 T00330033  RH  100%=      5-min Rain = 0
KTA1 091114Z 29004KT 03/03 A3027 RMK A01 T00330033  RH  100%=      5-min Rain = 0
KTA1 091115Z 29003KT 03/03 A3027 RMK A01 T00330033  RH  100%=      5-min Rain = 0
KTA1 091116Z 29004KT 03/03 A3027 RMK A01 T00330033  RH  100%=      5-min Rain = 0
KTA1 091117Z 29004KT 03/03 A3027 RMK A01 T00320032  RH  100%=      5-min Rain = 0
KTA1 091118Z 29004KT 03/03 A3027 RMK A01 T00320032  RH  100%=      5-min Rain = 0
KTA1 091119Z 29004KT 03/03 A3027 RMK A01 T00320032  RH  100%=      5-min Rain = 0
KTA1 091120Z 29004KT 03/03 A3027 RMK A01 T00320032  RH  100%=      5-min Rain = 0
KTA1 091121Z 29005KT 03/03 A3027 RMK A01 T00320032  RH  100%=      5-min Rain = 0
KTA1 091122Z 28005KT 03/03 A3027 RMK A01 T00320032  RH  100%=      5-min Rain = 0
KTA1 091123Z 28005KT 03/03 A3027 RMK A01 T00320032  RH  100%=      5-min Rain = 0
KTA1 091124Z 28004KT 03/03 A3027 RMK A01 T00330033  RH  100%=      5-min Rain = 0
KTA1 091125Z 28004KT 03/03 A3027 RMK A01 T00330033  RH  100%=      5-min Rain = 0
KTA1 091126Z 28004KT 03/03 A3027 RMK A01 T00330033  RH  100%=      5-min Rain = 0
KTA1 091127Z 28004KT 03/03 A3027 RMK A01 T00320032  RH  100%=      5-min Rain = 0
KTA1 091128Z 28004KT 03/03 A3027 RMK A01 T00330033  RH  100%=      5-min Rain = 0
KTA1 091129Z 27004KT 03/03 A3027 RMK A01 T00330033  RH  100%=      5-min Rain = 0
KTA1 091130Z 27004KT 03/03 A3027 RMK A01 T00330033  RH  100%=      5-min Rain = 0
KTA1 091131Z 28004KT 03/03 A3026 RMK A01 T00330033  RH  100%=      5-min Rain = 0
KTA1 091132Z 28004KT 03/03 A3026 RMK A01 T00320032  RH  100%=      5-min Rain = 0
KTA1 091133Z 28004KT 03/03 A3026 RMK A01 T00320032  RH  100%=      5-min Rain = 0
KTA1 091134Z 28004KT 03/03 A3026 RMK A01 T00320032  RH  100%=      5-min Rain = 0
KTA1 091135Z 28004KT 03/03 A3026 RMK A01 T00320032  RH  100%=      5-min Rain = 0
KTA1 091136Z 28004KT 03/03 A3026 RMK A01 T00310031  RH  100%=      5-min Rain = 0
KTA1 091137Z 28004KT 03/03 A3026 RMK A01 T00310031  RH  100%=      5-min Rain = 0
KTA1 091138Z 29004KT 03/03 A3026 RMK A01 T00310031  RH  100%=      5-min Rain = 0
KTA1 091139Z 29004KT 03/03 A3026 RMK A01 T00310031  RH  100%=      5-min Rain = 0
KTA1 091140Z 29004KT 03/03 A3026 RMK A01 T00310031  RH  100%=      5-min Rain = 0
KTA1 091141Z 29004KT 03/03 A3026 RMK A01 T00300030  RH  100%=      5-min Rain = 0
KTA1 091142Z 29004KT 03/03 A3026 RMK A01 T00300030  RH  100%=      5-min Rain = 0
KTA1 091143Z 29004KT 03/03 A3027 RMK A01 T00300030  RH  100%=      5-min Rain = 0
KTA1 091144Z 29003KT 03/03 A3027 RMK A01 T00300030  RH  100%=      5-min Rain = 0
KTA1 091145Z 29003KT 03/03 A3027 RMK A01 T00300030  RH  100%=      5-min Rain = 0
KTA1 091146Z 29003KT 03/03 A3027 RMK A01 T00300030  RH  100%=      5-min Rain = 0
KTA1 091147Z 29003KT 03/03 A3027 RMK A01 T00300030  RH  100%=      5-min Rain = 0
KTA1 091148Z 29003KT 03/03 A3027 RMK A01 T00290029  RH  100%=      5-min Rain = 0
KTA1 091149Z 30003KT 03/03 A3027 RMK A01 T00290029  RH  100%=      5-min Rain = 0
KTA1 091150Z 30004KT 03/03 A3027 RMK A01 T00290029  RH  100%=      5-min Rain = 0
KTA1 091151Z 30004KT 03/03 A3027 RMK A01 T00280028  RH  100%=      5-min Rain = 0
KTA1 091152Z 30004KT 03/03 A3027 RMK A01 T00280028  RH  100%=      5-min Rain = 0
KTA1 091153Z 30004KT 03/03 A3027 RMK A01 T00280028  RH  100%=      5-min Rain = 0
KTA1 091154Z 29004KT 03/03 A3027 RMK A01 T00280028  RH  100%=      5-min Rain = 0
KTA1 091155Z 29004KT 03/03 A3027 RMK A01 T00290029  RH  100%=      5-min Rain = 0
KTA1 091156Z 30004KT 03/03 A3027 RMK A01 T00290029  RH  100%=      5-min Rain = 0
KTA1 091157Z 30004KT 03/03 A3027 RMK A01 T00290029  RH  100%=      5-min Rain = 0
KTA1 091158Z 30005KT 03/03 A3027 RMK A01 T00290029  RH  100%=      5-min Rain = 0
KTA1 091159Z 30005KT 03/03 A3027 RMK A01 T00300030  RH  100%=      5-min Rain = 0
KTA1 091200Z 30005KT 03/03 A3027 RMK A01 T00300030  RH  100%=      5-min Rain = 0
KTA1 091201Z 30004KT 03/03 A3027 RMK A01 T00310031  RH  100%=      5-min Rain = 0
KTA1 091202Z 29004KT 03/03 A3027 RMK A01 T00300030  RH  100%=      5-min Rain = 0
KTA1 091203Z 29004KT 03/03 A3027 RMK A01 T00300030  RH  100%=      5-min Rain = 0
KTA1 091204Z 29004KT 03/03 A3027 RMK A01 T00300030  RH  100%=      5-min Rain = 0
KTA1 091205Z 29005KT 03/03 A3027 RMK A01 T00300030  RH  100%=      5-min Rain = 0
KTA1 091206Z 29005KT 03/03 A3027 RMK A01 T00300030  RH  100%=      5-min Rain = 0
KTA1 091207Z 29005KT 03/03 A3027 RMK A01 T00300030  RH  100%=      5-min Rain = 0
KTA1 091208Z 29005KT 03/03 A3027 RMK A01 T00300030  RH  100%=      5-min Rain = 0
KTA1 091209Z 29005KT 03/03 A3027 RMK A01 T00300030  RH  100%=      5-min Rain = 0
KTA1 091210Z 29005KT 03/03 A3028 RMK A01 T00300030  RH  100%=      5-min Rain = 0
KTA1 091211Z 29005KT 03/03 A3028 RMK A01 T00310031  RH  100%=      5-min Rain = 0
KTA1 091212Z 29005KT 03/03 A3028 RMK A01 T00310031  RH  100%=      5-min Rain = 0
KTA1 091213Z 29006KT 03/03 A3028 RMK A01 T00310031  RH  100%=      5-min Rain = 0
KTA1 091214Z 29006KT 03/03 A3028 RMK A01 T00310031  RH  100%=      5-min Rain = 0
KTA1 091215Z 28006KT 03/03 A3028 RMK A01 T00320032  RH  100%=      5-min Rain = 0
KTA1 091216Z 29006KT 03/03 A3028 RMK A01 T00320032  RH  100%=      5-min Rain = 0
KTA1 091217Z 29005KT 03/03 A3028 RMK A01 T00330033  RH  100%=      5-min Rain = 0
KTA1 091218Z 29005KT 03/03 A3028 RMK A01 T00330033  RH  100%=      5-min Rain = 0
KTA1 091219Z 29005KT 03/03 A3028 RMK A01 T00330033  RH  100%=      5-min Rain = 0
KTA1 091220Z 29005KT 03/03 A3028 RMK A01 T00330033  RH  100%=      5-min Rain = 0
KTA1 091221Z 28005KT 03/03 A3028 RMK A01 T00330033  RH  100%=      5-min Rain = 0
KTA1 091222Z 28004KT 03/03 A3028 RMK A01 T00330033  RH  100%=      5-min Rain = 0
KTA1 091223Z 28004KT 03/03 A3028 RMK A01 T00330033  RH  100%=      5-min Rain = 0
KTA1 091224Z 29004KT 03/03 A3028 RMK A01 T00330033  RH  100%=      5-min Rain = 0
KTA1 091225Z 29004KT 03/03 A3028 RMK A01 T00320032  RH  100%=      5-min Rain = 0
KTA1 091226Z 29004KT 03/03 A3028 RMK A01 T00320032  RH  100%=      5-min Rain = 0
KTA1 091227Z 29005KT 03/03 A3028 RMK A01 T00320032  RH  100%=      5-min Rain = 0
KTA1 091228Z 29005KT 03/03 A3028 RMK A01 T00320032  RH  100%=      5-min Rain = 0
KTA1 091229Z 30005KT 03/03 A3028 RMK A01 T00320032  RH  100%=      5-min Rain = 0
KTA1 091230Z 30005KT 03/03 A3028 RMK A01 T00320032  RH  100%=      5-min Rain = 0
KTA1 091231Z 29005KT 03/03 A3028 RMK A01 T00330032  RH  100%=      5-min Rain = 0
KTA1 091232Z 29004KT 03/03 A3028 RMK A01 T00330033  RH  100%=      5-min Rain = 0
KTA1 091233Z 29005KT 03/03 A3028 RMK A01 T00330033  RH  100%=      5-min Rain = 0
KTA1 091234Z 28005KT 03/03 A3028 RMK A01 T00330033  RH  100%=      5-min Rain = 0
KTA1 091235Z 29005KT 03/03 A3028 RMK A01 T00330033  RH  100%=      5-min Rain = 0
KTA1 091236Z 29004KT 03/03 A3028 RMK A01 T00330033  RH  100%=      5-min Rain = 0
KTA1 091237Z 29004KT 03/03 A3028 RMK A01 T00330033  RH  100%=      5-min Rain = 0
KTA1 091238Z 29005KT 03/03 A3028 RMK A01 T00330033  RH  100%=      5-min Rain = 0
KTA1 091239Z 29005KT 03/03 A3029 RMK A01 T00330033  RH  100%=      5-min Rain = 0
KTA1 091240Z 28004KT 03/03 A3029 RMK A01 T00330033  RH  100%=      5-min Rain = 0
KTA1 091241Z 28004KT 03/03 A3029 RMK A01 T00330033  RH  100%=      5-min Rain = 0
KTA1 091242Z 28004KT 03/03 A3029 RMK A01 T00330033  RH  100%=      5-min Rain = 0
KTA1 091243Z 28004KT 03/03 A3029 RMK A01 T00320032  RH  100%=      5-min Rain = 0
KTA1 091244Z 28003KT 03/03 A3029 RMK A01 T00320032  RH  100%=      5-min Rain = 0
KTA1 091245Z 29003KT 03/03 A3029 RMK A01 T00320032  RH  100%=      5-min Rain = 0
KTA1 091246Z 29003KT 03/03 A3029 RMK A01 T00310031  RH  100%=      5-min Rain = 0
KTA1 091247Z 29003KT 03/03 A3029 RMK A01 T00310031  RH  100%=      5-min Rain = 0
KTA1 091248Z 29003KT 03/03 A3029 RMK A01 T00310031  RH  100%=      5-min Rain = 0
KTA1 091249Z 29003KT 03/03 A3029 RMK A01 T00310031  RH  100%=      5-min Rain = 0
KTA1 091250Z 28003KT 03/03 A3029 RMK A01 T00310031  RH  100%=      5-min Rain = 0
KTA1 091251Z 28003KT 03/03 A3029 RMK A01 T00310031  RH  100%=      5-min Rain = 0
KTA1 091252Z 28003KT 03/03 A3029 RMK A01 T00310031  RH  100%=      5-min Rain = 0
KTA1 091253Z 28004KT 03/03 A3029 RMK A01 T00310031  RH  100%=      5-min Rain = 0
KTA1 091254Z 28003KT 03/03 A3029 RMK A01 T00300030  RH  100%=      5-min Rain = 0
KTA1 091255Z 28003KT 03/03 A3029 RMK A01 T00300030  RH  100%=      5-min Rain = 0
KTA1 091256Z 28003KT 03/03 A3029 RMK A01 T00300030  RH  100%=      5-min Rain = 0
KTA1 091257Z 28003KT 03/03 A3029 RMK A01 T00290029  RH  100%=      5-min Rain = 0
KTA1 091258Z 28003KT 03/03 A3029 RMK A01 T00290029  RH  100%=      5-min Rain = 0
KTA1 091259Z 28003KT 03/03 A3028 RMK A01 T00280028  RH  100%=      5-min Rain = 0
KTA1 091300Z 28003KT 03/03 A3028 RMK A01 T00280028  RH  100%=      5-min Rain = 0
KTA1 091301Z 28003KT 03/03 A3028 RMK A01 T00270027  RH  100%=      5-min Rain = 0
KTA1 091302Z 28003KT 03/03 A3028 RMK A01 T00270027  RH  100%=      5-min Rain = 0
KTA1 091303Z 28003KT 03/03 A3028 RMK A01 T00260026  RH  100%=      5-min Rain = 0
KTA1 091304Z 28003KT 03/03 A3028 RMK A01 T00260026  RH  100%=      5-min Rain = 0
KTA1 091305Z 29003KT 03/03 A3028 RMK A01 T00260026  RH  100%=      5-min Rain = 0
KTA1 091306Z 29003KT 03/03 A3028 RMK A01 T00260026  RH  100%=      5-min Rain = 0
KTA1 091307Z 29003KT 03/03 A3028 RMK A01 T00260026  RH  100%=      5-min Rain = 0
KTA1 091308Z 29002KT 03/03 A3028 RMK A01 T00250025  RH  100%=      5-min Rain = 0
KTA1 091309Z 28003KT 03/03 A3028 RMK A01 T00250025  RH  100%=      5-min Rain = 0
KTA1 091310Z 28002KT 03/03 A3028 RMK A01 T00260026  RH  100%=      5-min Rain = 0
KTA1 091311Z 28002KT 03/03 A3029 RMK A01 T00250025  RH  100%=      5-min Rain = 0
KTA1 091312Z 28003KT 03/03 A3029 RMK A01 T00250025  RH  100%=      5-min Rain = 0
KTA1 091313Z 28003KT 03/03 A3029 RMK A01 T00250025  RH  100%=      5-min Rain = 0
KTA1 091314Z 28003KT 03/03 A3028 RMK A01 T00250025  RH  100%=      5-min Rain = 0
KTA1 091315Z 28003KT 03/03 A3028 RMK A01 T00250025  RH  100%=      5-min Rain = 0
KTA1 091316Z 28003KT 03/03 A3028 RMK A01 T00250025  RH  100%=      5-min Rain = 0
KTA1 091317Z 28003KT 03/03 A3028 RMK A01 T00250025  RH  100%=      5-min Rain = 0
KTA1 091318Z 28004KT 03/03 A3028 RMK A01 T00250025  RH  100%=      5-min Rain = 0
KTA1 091319Z 28004KT 03/03 A3028 RMK A01 T00250025  RH  100%=      5-min Rain = 0
KTA1 091320Z 28004KT 03/03 A3028 RMK A01 T00250025  RH  100%=      5-min Rain = 0
KTA1 091321Z 27004KT 03/03 A3028 RMK A01 T00250025  RH  100%=      5-min Rain = 0
KTA1 091322Z 27004KT 03/03 A3028 RMK A01 T00250025  RH  100%=      5-min Rain = 0
KTA1 091323Z 27004KT 03/03 A3028 RMK A01 T00250025  RH  100%=      5-min Rain = 0
KTA1 091324Z 27004KT 03/03 A3029 RMK A01 T00250025  RH  100%=      5-min Rain = 0
KTA1 091325Z 27004KT 03/03 A3029 RMK A01 T00250025  RH  100%=      5-min Rain = 0
KTA1 091326Z 27004KT 03/03 A3029 RMK A01 T00250025  RH  100%=      5-min Rain = 0
KTA1 091327Z 28004KT 03/03 A3029 RMK A01 T00250025  RH  100%=      5-min Rain = 0
KTA1 091328Z 28004KT 03/03 A3029 RMK A01 T00250025  RH  100%=      5-min Rain = 0
KTA1 091329Z 29004KT 03/03 A3029 RMK A01 T00250025  RH  100%=      5-min Rain = 0
KTA1 091330Z 29004KT 03/03 A3029 RMK A01 T00250025  RH  100%=      5-min Rain = 0
KTA1 091331Z 29004KT 03/03 A3029 RMK A01 T00260026  RH  100%=      5-min Rain = 0
KTA1 091332Z 29004KT 03/03 A3029 RMK A01 T00260026  RH  100%=      5-min Rain = 0
KTA1 091333Z 29004KT 03/03 A3029 RMK A01 T00270027  RH  100%=      5-min Rain = 0
KTA1 091334Z 29004KT 03/03 A3029 RMK A01 T00280028  RH  100%=      5-min Rain = 0
KTA1 091335Z 29004KT 03/03 A3029 RMK A01 T00290029  RH  100%=      5-min Rain = 0
KTA1 091336Z 29004KT 03/03 A3029 RMK A01 T00290029  RH  100%=      5-min Rain = 0
KTA1 091337Z 29004KT 03/03 A3029 RMK A01 T00300030  RH  100%=      5-min Rain = 0
KTA1 091338Z 29004KT 03/03 A3029 RMK A01 T00310031  RH  100%=      5-min Rain = 0
KTA1 091339Z 29004KT 03/03 A3029 RMK A01 T00310031  RH  100%=      5-min Rain = 0
KTA1 091340Z 29004KT 03/03 A3029 RMK A01 T00310031  RH  100%=      5-min Rain = 0
KTA1 091341Z 29004KT 03/03 A3029 RMK A01 T00310031  RH  100%=      5-min Rain = 0
KTA1 091342Z 29003KT 03/03 A3029 RMK A01 T00320032  RH  100%=      5-min Rain = 0
KTA1 091343Z 29004KT 03/03 A3029 RMK A01 T00320032  RH  100%=      5-min Rain = 0
KTA1 091344Z 29003KT 03/03 A3029 RMK A01 T00320032  RH  100%=      5-min Rain = 0
KTA1 091345Z 29003KT 03/03 A3029 RMK A01 T00330033  RH  100%=      5-min Rain = 0
KTA1 091346Z 28003KT 03/03 A3029 RMK A01 T00340034  RH  100%=      5-min Rain = 0
KTA1 091347Z 28003KT 04/04 A3029 RMK A01 T00350035  RH  100%=      5-min Rain = 0
KTA1 091348Z 28003KT 04/04 A3029 RMK A01 T00350035  RH  100%=      5-min Rain = 0
KTA1 091349Z 28003KT 04/04 A3029 RMK A01 T00350035  RH  100%=      5-min Rain = 0
KTA1 091350Z 27003KT 04/04 A3029 RMK A01 T00360036  RH  100%=      5-min Rain = 0
KTA1 091351Z 27003KT 04/04 A3029 RMK A01 T00360036  RH  100%=      5-min Rain = 0
KTA1 091352Z 27003KT 04/04 A3029 RMK A01 T00360036  RH  100%=      5-min Rain = 0
KTA1 091353Z 27003KT 04/04 A3029 RMK A01 T00370037  RH  100%=      5-min Rain = 0
KTA1 091354Z 27004KT 04/04 A3029 RMK A01 T00370037  RH  100%=      5-min Rain = 0
KTA1 091355Z 27004KT 04/04 A3029 RMK A01 T00380037  RH  100%=      5-min Rain = 0
KTA1 091356Z 27003KT 04/04 A3029 RMK A01 T00380038  RH  100%=      5-min Rain = 0
KTA1 091357Z 27003KT 04/04 A3029 RMK A01 T00390039  RH  100%=      5-min Rain = 0
KTA1 091358Z 28003KT 04/04 A3029 RMK A01 T00390039  RH  100%=      5-min Rain = 0
KTA1 091359Z 28004KT 04/04 A3029 RMK A01 T00390039  RH  100%=      5-min Rain = 0
KTA1 091400Z 28004KT 04/04 A3029 RMK A01 T00400039  RH  100%=      5-min Rain = 0
KTA1 091401Z 27004KT 04/04 A3029 RMK A01 T00400039  RH  100%=      5-min Rain = 0
KTA1 091402Z 27005KT 04/04 A3029 RMK A01 T00400039  RH  099%=      5-min Rain = 0
KTA1 091403Z 27004KT 04/04 A3029 RMK A01 T00400039  RH  099%=      5-min Rain = 0
KTA1 091404Z 27003KT 04/04 A3029 RMK A01 T00400039  RH  099%=      5-min Rain = 0
KTA1 091405Z 27004KT 04/04 A3029 RMK A01 T00410040  RH  099%=      5-min Rain = 0
KTA1 091406Z 27005KT 04/04 A3029 RMK A01 T00420041  RH  099%=      5-min Rain = 0
KTA1 091407Z 26004KT 04/04 A3029 RMK A01 T00430041  RH  099%=      5-min Rain = 0
KTA1 091408Z 26004KT 04/04 A3029 RMK A01 T00430041  RH  099%=      5-min Rain = 0
KTA1 091409Z 27004KT 04/04 A3029 RMK A01 T00440042  RH  099%=      5-min Rain = 0
KTA1 091410Z 26005KT 04/04 A3029 RMK A01 T00440042  RH  099%=      5-min Rain = 0
KTA1 091411Z 26004KT 04/04 A3029 RMK A01 T00440042  RH  098%=      5-min Rain = 0
KTA1 091412Z 26005KT 04/04 A3029 RMK A01 T00440042  RH  098%=      5-min Rain = 0
KTA1 091413Z 26005KT 04/04 A3029 RMK A01 T00440042  RH  098%=      5-min Rain = 0.01
KTA1 091414Z 26004KT 04/04 A3029 RMK A01 T00440042  RH  098%=      5-min Rain = 0
KTA1 091415Z 26004KT 05/04 A3029 RMK A01 T00450043  RH  098%=      5-min Rain = 0
KTA1 091416Z 26005KT 05/04 A3029 RMK A01 T00460043  RH  098%=      5-min Rain = 0
KTA1 091417Z 26004KT 05/04 A3029 RMK A01 T00460043  RH  098%=      5-min Rain = 0
KTA1 091418Z 26003KT 05/04 A3029 RMK A01 T00460043  RH  098%=      5-min Rain = 0
KTA1 091419Z 25004KT 05/04 A3029 RMK A01 T00470044  RH  098%=      5-min Rain = 0
KTA1 091420Z 26005KT 05/05 A3029 RMK A01 T00480045  RH  098%=      5-min Rain = 0
KTA1 091421Z 26005KT 05/04 A3029 RMK A01 T00470044  RH  098%=      5-min Rain = 0
KTA1 091422Z 26004KT 05/04 A3029 RMK A01 T00470044  RH  098%=      5-min Rain = 0
KTA1 091423Z 26004KT 05/05 A3029 RMK A01 T00480045  RH  098%=      5-min Rain = 0
KTA1 091424Z 25005KT 05/05 A3029 RMK A01 T00490046  RH  098%=      5-min Rain = 0
KTA1 091425Z 26005KT 05/05 A3029 RMK A01 T00490046  RH  098%=      5-min Rain = 0
KTA1 091426Z 27004KT 05/05 A3029 RMK A01 T00490046  RH  098%=      5-min Rain = 0
KTA1 091427Z 26004KT 05/05 A303 RMK A01 T00500047  RH  098%=      5-min Rain = 0
KTA1 091428Z 27005KT 05/05 A303 RMK A01 T00500047  RH  098%=      5-min Rain = 0
KTA1 091429Z 27004KT 05/05 A303 RMK A01 T00510048  RH  098%=      5-min Rain = 0
KTA1 091430Z 27004KT 05/05 A303 RMK A01 T00510048  RH  098%=      5-min Rain = 0
KTA1 091431Z 26005KT 05/05 A303 RMK A01 T00510048  RH  098%=      5-min Rain = 0
KTA1 091432Z 26004KT 05/05 A303 RMK A01 T00520048  RH  098%=      5-min Rain = 0
KTA1 091433Z 26004KT 05/05 A303 RMK A01 T00520049  RH  098%=      5-min Rain = 0
KTA1 091434Z 26005KT 05/05 A303 RMK A01 T00520049  RH  098%=      5-min Rain = 0
KTA1 091435Z 25004KT 05/05 A303 RMK A01 T00520048  RH  097%=      5-min Rain = 0
KTA1 091436Z 26004KT 05/05 A303 RMK A01 T00530049  RH  097%=      5-min Rain = 0
KTA1 091437Z 26005KT 05/05 A303 RMK A01 T00540050  RH  097%=      5-min Rain = 0
KTA1 091438Z 27005KT 05/05 A303 RMK A01 T00540050  RH  097%=      5-min Rain = 0
KTA1 091439Z 26005KT 05/05 A303 RMK A01 T00540050  RH  097%=      5-min Rain = 0
KTA1 091440Z 25005KT 06/05 A303 RMK A01 T00550050  RH  097%=      5-min Rain = 0
KTA1 091441Z 26003KT 06/05 A303 RMK A01 T00560051  RH  097%=      5-min Rain = 0
KTA1 091442Z 26004KT 06/05 A303 RMK A01 T00560052  RH  097%=      5-min Rain = 0
KTA1 091443Z 26003KT 06/05 A303 RMK A01 T00570052  RH  097%=      5-min Rain = 0
KTA1 091444Z 27004KT 06/05 A303 RMK A01 T00580053  RH  097%=      5-min Rain = 0
KTA1 091445Z 27005KT 06/05 A303 RMK A01 T00590054  RH  096%=      5-min Rain = 0
KTA1 091446Z 27005KT 06/05 A303 RMK A01 T00590053  RH  096%=      5-min Rain = 0
KTA1 091447Z 26004KT 06/05 A303 RMK A01 T00590052  RH  096%=      5-min Rain = 0
KTA1 091448Z 27004KT 06/05 A303 RMK A01 T00600053  RH  095%=      5-min Rain = 0
KTA1 091449Z 27004KT 06/05 A303 RMK A01 T00600052  RH  095%=      5-min Rain = 0
KTA1 091450Z 27004KT 06/05 A303 RMK A01 T00600052  RH  095%=      5-min Rain = 0
KTA1 091451Z 27004KT 06/05 A303 RMK A01 T00600053  RH  095%=      5-min Rain = 0
KTA1 091452Z 26004KT 06/05 A303 RMK A01 T00610053  RH  094%=      5-min Rain = 0
KTA1 091453Z 26004KT 06/05 A303 RMK A01 T00610052  RH  094%=      5-min Rain = 0
KTA1 091454Z 25004KT 06/05 A303 RMK A01 T00630054  RH  094%=      5-min Rain = 0
KTA1 091455Z 25004KT 06/05 A303 RMK A01 T00620053  RH  094%=      5-min Rain = 0
KTA1 091456Z 25005KT 06/06 A303 RMK A01 T00640055  RH  094%=      5-min Rain = 0
KTA1 091457Z 26004KT 06/05 A303 RMK A01 T00640054  RH  094%=      5-min Rain = 0
KTA1 091458Z 26004KT 06/06 A303 RMK A01 T00640055  RH  094%=      5-min Rain = 0
KTA1 091459Z 26005KT 07/06 A303 RMK A01 T00660056  RH  094%=      5-min Rain = 0
KTA1 091500Z 26005KT 07/06 A303 RMK A01 T00660056  RH  093%=      5-min Rain = 0
KTA1 091501Z 27005KT 07/06 A303 RMK A01 T00660056  RH  093%=      5-min Rain = 0
KTA1 091502Z 27005KT 07/06 A303 RMK A01 T00680057  RH  093%=      5-min Rain = 0
KTA1 091503Z 26004KT 07/06 A303 RMK A01 T00680057  RH  093%=      5-min Rain = 0
KTA1 091504Z 28004KT 07/06 A303 RMK A01 T00690058  RH  093%=      5-min Rain = 0
KTA1 091505Z 28004KT 07/06 A303 RMK A01 T00710059  RH  092%=      5-min Rain = 0
KTA1 091506Z 27004KT 07/06 A303 RMK A01 T00710058  RH  092%=      5-min Rain = 0
KTA1 091507Z 28004KT 07/06 A303 RMK A01 T00710058  RH  091%=      5-min Rain = 0
KTA1 091508Z 28004KT 07/06 A303 RMK A01 T00710058  RH  091%=      5-min Rain = 0
KTA1 091509Z 28004KT 07/06 A303 RMK A01 T00720059  RH  091%=      5-min Rain = 0
KTA1 091510Z 28004KT 07/06 A303 RMK A01 T00720058  RH  090%=      5-min Rain = 0
KTA1 091511Z 28004KT 07/06 A303 RMK A01 T00730059  RH  091%=      5-min Rain = 0
KTA1 091512Z 28004KT 07/06 A303 RMK A01 T00740059  RH  090%=      5-min Rain = 0
KTA1 091513Z 28004KT 07/06 A303 RMK A01 T00740059  RH  090%=      5-min Rain = 0
KTA1 091514Z 27003KT 08/06 A303 RMK A01 T00750059  RH  090%=      5-min Rain = 0
KTA1 091515Z 26004KT 08/06 A303 RMK A01 T00760060  RH  090%=      5-min Rain = 0
KTA1 091516Z 26003KT 08/06 A303 RMK A01 T00760058  RH  089%=      5-min Rain = 0
KTA1 091517Z 27002KT 08/06 A303 RMK A01 T00750059  RH  089%=      5-min Rain = 0
KTA1 091518Z 25003KT 08/06 A303 RMK A01 T00760059  RH  089%=      5-min Rain = 0
KTA1 091519Z 26002KT 08/06 A303 RMK A01 T00770060  RH  089%=      5-min Rain = 0
KTA1 091520Z 27002KT 08/06 A303 RMK A01 T00780062  RH  090%=      5-min Rain = 0
KTA1 091521Z 27002KT 08/06 A303 RMK A01 T00790064  RH  090%=      5-min Rain = 0
KTA1 091522Z 26002KT 08/06 A303 RMK A01 T00800064  RH  089%=      5-min Rain = 0
KTA1 091523Z 29003KT 08/06 A303 RMK A01 T00810063  RH  088%=      5-min Rain = 0
KTA1 091524Z 28004KT 08/06 A303 RMK A01 T00810062  RH  088%=      5-min Rain = 0
KTA1 091525Z 27004KT 08/06 A303 RMK A01 T00810061  RH  087%=      5-min Rain = 0
KTA1 091526Z 28004KT 08/06 A303 RMK A01 T00820061  RH  087%=      5-min Rain = 0
KTA1 091527Z 28004KT 08/06 A303 RMK A01 T00820062  RH  087%=      5-min Rain = 0
KTA1 091528Z 28005KT 08/06 A303 RMK A01 T00830062  RH  087%=      5-min Rain = 0
KTA1 091529Z 28005KT 08/06 A303 RMK A01 T00840062  RH  086%=      5-min Rain = 0
KTA1 091530Z 27004KT 08/06 A303 RMK A01 T00840063  RH  086%=      5-min Rain = 0
KTA1 091531Z 27004KT 08/06 A303 RMK A01 T00840063  RH  087%=      5-min Rain = 0
KTA1 091532Z 26004KT 09/07 A303 RMK A01 T00860065  RH  087%=      5-min Rain = 0
KTA1 091533Z 26004KT 09/06 A303 RMK A01 T00850064  RH  086%=      5-min Rain = 0
KTA1 091534Z 26004KT 09/07 A303 RMK A01 T00860065  RH  087%=      5-min Rain = 0
KTA1 091535Z 27004KT 09/07 A303 RMK A01 T00870067  RH  087%=      5-min Rain = 0
KTA1 091536Z 28005KT 09/07 A303 RMK A01 T00880066  RH  086%=      5-min Rain = 0
KTA1 091537Z 27004KT 09/07 A303 RMK A01 T00880065  RH  085%=      5-min Rain = 0
KTA1 091538Z 27004KT 09/06 A303 RMK A01 T00880064  RH  085%=      5-min Rain = 0
KTA1 091539Z 26003KT 09/06 A303 RMK A01 T00880064  RH  085%=      5-min Rain = 0
KTA1 091540Z 26005KT 09/06 A303 RMK A01 T00880064  RH  085%=      5-min Rain = 0
KTA1 091541Z 25005KT 09/07 A303 RMK A01 T00880065  RH  086%=      5-min Rain = 0
KTA1 091542Z 27004KT 09/06 A303 RMK A01 T00870064  RH  085%=      5-min Rain = 0
KTA1 091543Z 28004KT 09/07 A303 RMK A01 T00880066  RH  086%=      5-min Rain = 0
KTA1 091544Z 26004KT 09/07 A303 RMK A01 T00900068  RH  086%=      5-min Rain = 0
KTA1 091545Z 25005KT 09/07 A303 RMK A01 T00900067  RH  085%=      5-min Rain = 0
KTA1 091546Z 25004KT 09/07 A303 RMK A01 T00900067  RH  085%=      5-min Rain = 0
KTA1 091547Z 26005KT 09/07 A303 RMK A01 T00910069  RH  086%=      5-min Rain = 0
KTA1 091548Z 25005KT 09/07 A303 RMK A01 T00920068  RH  085%=      5-min Rain = 0
KTA1 091549Z 25005KT 09/07 A303 RMK A01 T00930068  RH  085%=      5-min Rain = 0
KTA1 091550Z 25004KT 09/07 A303 RMK A01 T00930068  RH  085%=      5-min Rain = 0
KTA1 091551Z 25005KT 09/07 A303 RMK A01 T00920068  RH  085%=      5-min Rain = 0
KTA1 091552Z 26005KT 09/07 A303 RMK A01 T00920068  RH  084%=      5-min Rain = 0
KTA1 091553Z 27005KT 09/07 A303 RMK A01 T00930068  RH  084%=      5-min Rain = 0
KTA1 091554Z 27005KT 09/07 A303 RMK A01 T00940068  RH  084%=      5-min Rain = 0
KTA1 091555Z 27005KT 10/07 A303 RMK A01 T00950070  RH  084%=      5-min Rain = 0
KTA1 091556Z 28005KT 10/07 A303 RMK A01 T00950068  RH  083%=      5-min Rain = 0
KTA1 091557Z 27004KT 10/07 A303 RMK A01 T00960068  RH  083%=      5-min Rain = 0
KTA1 091558Z 27003KT 10/07 A303 RMK A01 T00960068  RH  083%=      5-min Rain = 0
KTA1 091559Z 28005KT 10/07 A303 RMK A01 T00960069  RH  083%=      5-min Rain = 0
KTA1 091600Z 29005KT 10/07 A303 RMK A01 T00960069  RH  083%=      5-min Rain = 0
KTA1 091601Z 28003KT 10/07 A303 RMK A01 T00980071  RH  083%=      5-min Rain = 0
KTA1 091602Z 27004KT 10/07 A303 RMK A01 T00980070  RH  083%=      5-min Rain = 0
KTA1 091603Z 26004KT 10/07 A303 RMK A01 T00990070  RH  083%=      5-min Rain = 0
KTA1 091604Z 26003KT 10/07 A303 RMK A01 T00990070  RH  082%=      5-min Rain = 0
KTA1 091605Z 28003KT 10/07 A303 RMK A01 T00990071  RH  083%=      5-min Rain = 0
KTA1 091606Z 28005KT 10/07 A303 RMK A01 T00990072  RH  083%=      5-min Rain = 0
KTA1 091607Z 28004KT 10/07 A303 RMK A01 T01000071  RH  082%=      5-min Rain = 0
KTA1 091608Z 29003KT 10/07 A303 RMK A01 T01010071  RH  082%=      5-min Rain = 0
KTA1 091609Z 28003KT 10/07 A303 RMK A01 T01010072  RH  082%=      5-min Rain = 0
KTA1 091610Z 27004KT 10/07 A303 RMK A01 T01020073  RH  082%=      5-min Rain = 0
KTA1 091611Z 25003KT 10/08 A303 RMK A01 T01040075  RH  082%=      5-min Rain = 0
KTA1 091612Z 26003KT 10/08 A303 RMK A01 T01040075  RH  082%=      5-min Rain = 0
KTA1 091613Z 27003KT 11/08 A303 RMK A01 T01050076  RH  082%=      5-min Rain = 0
KTA1 091614Z 28004KT 11/08 A303 RMK A01 T01060075  RH  081%=      5-min Rain = 0
KTA1 091615Z 28004KT 11/08 A303 RMK A01 T01060075  RH  081%=      5-min Rain = 0
KTA1 091616Z 28003KT 11/07 A303 RMK A01 T01060074  RH  080%=      5-min Rain = 0
KTA1 091617Z 25003KT 11/08 A303 RMK A01 T01070075  RH  080%=      5-min Rain = 0
KTA1 091618Z 26003KT 11/07 A303 RMK A01 T01070073  RH  080%=      5-min Rain = 0
KTA1 091619Z 26003KT 11/08 A303 RMK A01 T01070075  RH  080%=      5-min Rain = 0
KTA1 091620Z 27003KT 11/08 A303 RMK A01 T01080076  RH  081%=      5-min Rain = 0
KTA1 091621Z 26002KT 11/08 A303 RMK A01 T01090078  RH  081%=      5-min Rain = 0
KTA1 091622Z 24002KT 11/08 A303 RMK A01 T01110080  RH  081%=      5-min Rain = 0
KTA1 091623Z 28003KT 11/08 A303 RMK A01 T01120079  RH  080%=      5-min Rain = 0
KTA1 091624Z 29004KT 11/08 A303 RMK A01 T01130080  RH  080%=      5-min Rain = 0
KTA1 091625Z 29002KT 11/08 A303 RMK A01 T01140078  RH  079%=      5-min Rain = 0
KTA1 091626Z 28002KT 11/08 A303 RMK A01 T01140078  RH  079%=      5-min Rain = 0
KTA1 091627Z 27003KT 11/08 A303 RMK A01 T01140078  RH  078%=      5-min Rain = 0
KTA1 091628Z 27004KT 12/08 A303 RMK A01 T01150077  RH  078%=      5-min Rain = 0
KTA1 091629Z 27003KT 11/08 A303 RMK A01 T01140078  RH  078%=      5-min Rain = 0
KTA1 091630Z 27002KT 11/08 A303 RMK A01 T01130076  RH  078%=      5-min Rain = 0
KTA1 091631Z 24001KT 11/08 A303 RMK A01 T01130077  RH  079%=      5-min Rain = 0
KTA1 091632Z 29001KT 11/08 A303 RMK A01 T01140080  RH  079%=      5-min Rain = 0
KTA1 091633Z 28004KT 12/08 A303 RMK A01 T01150080  RH  079%=      5-min Rain = 0
KTA1 091634Z 27001KT 12/08 A303 RMK A01 T01160079  RH  078%=      5-min Rain = 0
KTA1 091635Z 25001KT 12/08 A303 RMK A01 T01160078  RH  077%=      5-min Rain = 0
KTA1 091636Z 28003KT 12/08 A303 RMK A01 T01170081  RH  079%=      5-min Rain = 0
KTA1 091637Z 28004KT 12/08 A303 RMK A01 T01180081  RH  078%=      5-min Rain = 0
KTA1 091638Z 28004KT 12/08 A303 RMK A01 T01190080  RH  077%=      5-min Rain = 0
KTA1 091639Z 28003KT 12/08 A303 RMK A01 T01190080  RH  077%=      5-min Rain = 0
KTA1 091640Z 24003KT 12/08 A303 RMK A01 T01200083  RH  078%=      5-min Rain = 0
KTA1 091641Z 23003KT 12/08 A303 RMK A01 T01200081  RH  077%=      5-min Rain = 0
KTA1 091642Z 24002KT 12/08 A303 RMK A01 T01200081  RH  077%=      5-min Rain = 0
KTA1 091643Z 26002KT 12/08 A303 RMK A01 T01200082  RH  078%=      5-min Rain = 0
KTA1 091644Z 27003KT 12/08 A3029 RMK A01 T01210083  RH  078%=      5-min Rain = 0
KTA1 091645Z 26004KT 12/09 A3029 RMK A01 T01220085  RH  078%=      5-min Rain = 0
KTA1 091646Z 26003KT 12/08 A3029 RMK A01 T01240083  RH  076%=      5-min Rain = 0
KTA1 091647Z 29001KT 12/08 A3029 RMK A01 T01230081  RH  076%=      5-min Rain = 0
KTA1 091648Z 28001KT 12/08 A3029 RMK A01 T01230084  RH  077%=      5-min Rain = 0
KTA1 091649Z 29002KT 13/09 A3029 RMK A01 T01250085  RH  077%=      5-min Rain = 0
KTA1 091650Z 26001KT 13/08 A3029 RMK A01 T01260084  RH  076%=      5-min Rain = 0
KTA1 091651Z 25003KT 13/09 A3029 RMK A01 T01270086  RH  076%=      5-min Rain = 0
KTA1 091652Z 24001KT 13/09 A3029 RMK A01 T01290086  RH  075%=      5-min Rain = 0
KTA1 091653Z 20002KT 13/09 A3029 RMK A01 T01290087  RH  076%=      5-min Rain = 0
KTA1 091654Z 21003KT 13/09 A3029 RMK A01 T01300090  RH  076%=      5-min Rain = 0
KTA1 091655Z 22004KT 13/09 A3029 RMK A01 T01310089  RH  075%=      5-min Rain = 0
KTA1 091656Z 21003KT 13/09 A3029 RMK A01 T01310087  RH  075%=      5-min Rain = 0
KTA1 091657Z 20003KT 13/09 A3029 RMK A01 T01300086  RH  075%=      5-min Rain = 0
KTA1 091658Z 18003KT 13/09 A3029 RMK A01 T01300088  RH  076%=      5-min Rain = 0
KTA1 091659Z 20004KT 13/09 A3029 RMK A01 T01310090  RH  076%=      5-min Rain = 0
KTA1 091700Z 20005KT 13/09 A3029 RMK A01 T01330092  RH  076%=      5-min Rain = 0
KTA1 091701Z 21005KT 13/09 A3029 RMK A01 T01340090  RH  075%=      5-min Rain = 0
KTA1 091702Z 20005KT 13/09 A3029 RMK A01 T01340091  RH  075%=      5-min Rain = 0
KTA1 091703Z 21005KT 13/09 A3029 RMK A01 T01340091  RH  075%=      5-min Rain = 0
KTA1 091704Z 21006KT 13/09 A3029 RMK A01 T01340094  RH  077%=      5-min Rain = 0
KTA1 091705Z 22005KT 14/09 A3029 RMK A01 T01350090  RH  074%=      5-min Rain = 0
KTA1 091706Z 22005KT 13/09 A3029 RMK A01 T01340090  RH  075%=      5-min Rain = 0
KTA1 091707Z 23006KT 13/09 A3029 RMK A01 T01340090  RH  075%=      5-min Rain = 0
KTA1 091708Z 23005KT 13/09 A3029 RMK A01 T01330090  RH  075%=      5-min Rain = 0
KTA1 091709Z 20004KT 13/09 A3029 RMK A01 T01340093  RH  076%=      5-min Rain = 0
KTA1 091710Z 21004KT 14/09 A3029 RMK A01 T01350093  RH  075%=      5-min Rain = 0
KTA1 091711Z 20004KT 14/09 A3028 RMK A01 T01360094  RH  076%=      5-min Rain = 0
KTA1 091712Z 21005KT 14/09 A3028 RMK A01 T01380093  RH  075%=      5-min Rain = 0
KTA1 091713Z 21006KT 14/09 A3028 RMK A01 T01380092  RH  074%=      5-min Rain = 0
KTA1 091714Z 20005KT 14/09 A3028 RMK A01 T01370093  RH  074%=      5-min Rain = 0
KTA1 091715Z 21004KT 14/09 A3028 RMK A01 T01370092  RH  074%=      5-min Rain = 0
KTA1 091716Z 19004KT 14/09 A3028 RMK A01 T01370091  RH  074%=      5-min Rain = 0
KTA1 091717Z 20005KT 14/09 A3028 RMK A01 T01370093  RH  074%=      5-min Rain = 0
KTA1 091718Z 19005KT 14/09 A3028 RMK A01 T01380092  RH  074%=      5-min Rain = 0
KTA1 091719Z 21005KT 14/09 A3028 RMK A01 T01380093  RH  074%=      5-min Rain = 0
KTA1 091720Z 20005KT 14/09 A3028 RMK A01 T01380093  RH  074%=      5-min Rain = 0
KTA1 091721Z 19004KT 14/09 A3028 RMK A01 T01380094  RH  075%=      5-min Rain = 0
KTA1 091722Z 21005KT 14/09 A3028 RMK A01 T01400094  RH  074%=      5-min Rain = 0
KTA1 091723Z 21006KT 14/09 A3028 RMK A01 T01400094  RH  074%=      5-min Rain = 0
KTA1 091724Z 21005KT 14/10 A3028 RMK A01 T01400095  RH  074%=      5-min Rain = 0
KTA1 091725Z 20006KT 14/10 A3028 RMK A01 T01410099  RH  076%=      5-min Rain = 0
KTA1 091726Z 19006KT 14/10 A3028 RMK A01 T01420098  RH  075%=      5-min Rain = 0
KTA1 091727Z 20007KT 14/10 A3028 RMK A01 T01430098  RH  074%=      5-min Rain = 0
KTA1 091728Z 20007KT 14/10 A3028 RMK A01 T01430097  RH  074%=      5-min Rain = 0
KTA1 091729Z 21007KT 14/10 A3028 RMK A01 T01430098  RH  074%=      5-min Rain = 0
KTA1 091730Z 22007KT 14/10 A3028 RMK A01 T01440099  RH  074%=      5-min Rain = 0
KTA1 091731Z 20006KT 14/10 A3028 RMK A01 T01440099  RH  074%=      5-min Rain = 0
KTA1 091732Z 21006KT 15/10 A3028 RMK A01 T01450099  RH  074%=      5-min Rain = 0
KTA1 091733Z 22007KT 15/10 A3028 RMK A01 T01450097  RH  073%=      5-min Rain = 0
KTA1 091734Z 21006KT 15/10 A3028 RMK A01 T01450097  RH  073%=      5-min Rain = 0
KTA1 091735Z 21005KT 15/10 A3027 RMK A01 T01450102  RH  075%=      5-min Rain = 0
KTA1 091736Z 21007KT 15/10 A3027 RMK A01 T01470100  RH  073%=      5-min Rain = 0
KTA1 091737Z 20006KT 15/10 A3027 RMK A01 T01490101  RH  073%=      5-min Rain = 0
KTA1 091738Z 21006KT 15/10 A3027 RMK A01 T01500100  RH  072%=      5-min Rain = 0
KTA1 091739Z 20005KT 15/10 A3027 RMK A01 T01480095  RH  071%=      5-min Rain = 0
KTA1 091740Z 19007KT 15/10 A3027 RMK A01 T01460096  RH  072%=      5-min Rain = 0
KTA1 091741Z 20008KT 15/10 A3027 RMK A01 T01470098  RH  072%=      5-min Rain = 0
KTA1 091742Z 21007KT 15/10 A3027 RMK A01 T01480100  RH  073%=      5-min Rain = 0
KTA1 091743Z 21005KT 15/10 A3027 RMK A01 T01500101  RH  073%=      5-min Rain = 0
KTA1 091744Z 22006KT 15/10 A3027 RMK A01 T01500099  RH  072%=      5-min Rain = 0
KTA1 091745Z 22005KT 15/10 A3027 RMK A01 T01500098  RH  071%=      5-min Rain = 0
KTA1 091746Z 22006KT 15/10 A3027 RMK A01 T01490098  RH  072%=      5-min Rain = 0
KTA1 091747Z 22007KT 15/10 A3027 RMK A01 T01490098  RH  072%=      5-min Rain = 0
KTA1 091748Z 21006KT 15/10 A3027 RMK A01 T01490100  RH  072%=      5-min Rain = 0
KTA1 091749Z 21007KT 15/10 A3026 RMK A01 T01510100  RH  071%=      5-min Rain = 0
KTA1 091750Z 21005KT 15/10 A3026 RMK A01 T01510100  RH  071%=      5-min Rain = 0
KTA1 091751Z 20006KT 15/10 A3026 RMK A01 T01520102  RH  072%=      5-min Rain = 0
KTA1 091752Z 20005KT 15/10 A3026 RMK A01 T01540102  RH  071%=      5-min Rain = 0
KTA1 091753Z 22005KT 16/10 A3026 RMK A01 T01550104  RH  072%=      5-min Rain = 0
KTA1 091754Z 24005KT 16/10 A3026 RMK A01 T01550102  RH  070%=      5-min Rain = 0
KTA1 091755Z 20004KT 16/10 A3026 RMK A01 T01550101  RH  070%=      5-min Rain = 0
KTA1 091756Z 20005KT 16/10 A3026 RMK A01 T01550102  RH  071%=      5-min Rain = 0
KTA1 091757Z 20006KT 16/10 A3026 RMK A01 T01560102  RH  070%=      5-min Rain = 0
KTA1 091758Z 20005KT 16/10 A3026 RMK A01 T01560099  RH  069%=      5-min Rain = 0
KTA1 091759Z 21004KT 16/10 A3026 RMK A01 T01550100  RH  069%=      5-min Rain = 0
KTA1 091800Z 23004KT 16/10 A3026 RMK A01 T01560100  RH  070%=      5-min Rain = 0
KTA1 091801Z 23004KT 16/10 A3026 RMK A01 T01550101  RH  070%=      5-min Rain = 0
KTA1 091802Z 22005KT 16/10 A3026 RMK A01 T01560102  RH  070%=      5-min Rain = 0
KTA1 091803Z 21005KT 16/10 A3026 RMK A01 T01560101  RH  070%=      5-min Rain = 0
KTA1 091804Z 23005KT 16/10 A3026 RMK A01 T01570104  RH  071%=      5-min Rain = 0
KTA1 091805Z 22005KT 16/11 A3025 RMK A01 T01590105  RH  070%=      5-min Rain = 0
KTA1 091806Z 22005KT 16/10 A3025 RMK A01 T01590103  RH  069%=      5-min Rain = 0
KTA1 091807Z 22006KT 16/10 A3025 RMK A01 T01590104  RH  070%=      5-min Rain = 0
KTA1 091808Z 22005KT 16/10 A3025 RMK A01 T01590101  RH  068%=      5-min Rain = 0
KTA1 091809Z 22004KT 16/10 A3025 RMK A01 T01580100  RH  069%=      5-min Rain = 0
KTA1 091810Z 21005KT 16/10 A3025 RMK A01 T01580102  RH  069%=      5-min Rain = 0
KTA1 091811Z 18005KT 16/11 A3025 RMK A01 T01590105  RH  070%=      5-min Rain = 0
KTA1 091812Z 20005KT 16/11 A3025 RMK A01 T01620106  RH  070%=      5-min Rain = 0
KTA1 091813Z 19004KT 16/11 A3025 RMK A01 T01630105  RH  068%=      5-min Rain = 0
KTA1 091814Z 21003KT 16/10 A3025 RMK A01 T01630102  RH  067%=      5-min Rain = 0
KTA1 091815Z 21002KT 16/10 A3025 RMK A01 T01620100  RH  066%=      5-min Rain = 0
KTA1 091816Z 20003KT 16/10 A3025 RMK A01 T01620101  RH  067%=      5-min Rain = 0
KTA1 091817Z 21005KT 16/10 A3025 RMK A01 T01630104  RH  068%=      5-min Rain = 0
KTA1 091818Z 21005KT 16/11 A3025 RMK A01 T01630106  RH  069%=      5-min Rain = 0
KTA1 091819Z 22006KT 17/11 A3025 RMK A01 T01650105  RH  068%=      5-min Rain = 0
KTA1 091820Z 23006KT 17/11 A3024 RMK A01 T01650106  RH  068%=      5-min Rain = 0
KTA1 091821Z 23005KT 17/11 A3024 RMK A01 T01650105  RH  068%=      5-min Rain = 0
KTA1 091822Z 21004KT 16/10 A3024 RMK A01 T01630104  RH  068%=      5-min Rain = 0
KTA1 091823Z 20006KT 16/11 A3024 RMK A01 T01630107  RH  069%=      5-min Rain = 0
KTA1 091824Z 20005KT 17/11 A3024 RMK A01 T01650106  RH  068%=      5-min Rain = 0
KTA1 091825Z 22006KT 17/11 A3024 RMK A01 T01660105  RH  067%=      5-min Rain = 0
KTA1 091826Z 23006KT 17/10 A3024 RMK A01 T01650102  RH  066%=      5-min Rain = 0
KTA1 091827Z 22005KT 16/11 A3024 RMK A01 T01640105  RH  068%=      5-min Rain = 0
KTA1 091828Z 23005KT 16/10 A3024 RMK A01 T01640103  RH  067%=      5-min Rain = 0
KTA1 091829Z 21006KT 17/10 A3024 RMK A01 T01650104  RH  067%=      5-min Rain = 0
KTA1 091830Z 22005KT 17/10 A3024 RMK A01 T01660103  RH  066%=      5-min Rain = 0
KTA1 091831Z 23005KT 17/11 A3024 RMK A01 T01670107  RH  068%=      5-min Rain = 0
KTA1 091832Z 22006KT 17/11 A3024 RMK A01 T01680107  RH  067%=      5-min Rain = 0
KTA1 091833Z 22005KT 17/11 A3024 RMK A01 T01690106  RH  066%=      5-min Rain = 0
KTA1 091834Z 23004KT 17/11 A3024 RMK A01 T01700105  RH  066%=      5-min Rain = 0
KTA1 091835Z 24003KT 17/10 A3024 RMK A01 T01690104  RH  066%=      5-min Rain = 0
KTA1 091836Z 22003KT 17/11 A3024 RMK A01 T01690106  RH  067%=      5-min Rain = 0
KTA1 091837Z 21004KT 17/11 A3023 RMK A01 T01680105  RH  066%=      5-min Rain = 0
KTA1 091838Z 23005KT 17/11 A3023 RMK A01 T01690105  RH  066%=      5-min Rain = 0
KTA1 091839Z 23003KT 17/10 A3023 RMK A01 T01700104  RH  065%=      5-min Rain = 0
KTA1 091840Z 21005KT 17/11 A3023 RMK A01 T01700105  RH  066%=      5-min Rain = 0
KTA1 091841Z 21006KT 17/10 A3023 RMK A01 T01700103  RH  065%=      5-min Rain = 0
KTA1 091842Z 21005KT 17/10 A3023 RMK A01 T01710103  RH  064%=      5-min Rain = 0
KTA1 091843Z 20006KT 17/11 A3023 RMK A01 T01710105  RH  065%=      5-min Rain = 0
KTA1 091844Z 19006KT 17/11 A3023 RMK A01 T01710107  RH  066%=      5-min Rain = 0
KTA1 091845Z 20006KT 17/10 A3023 RMK A01 T01720104  RH  064%=      5-min Rain = 0
KTA1 091846Z 21005KT 17/10 A3023 RMK A01 T01720104  RH  064%=      5-min Rain = 0
KTA1 091847Z 22006KT 17/11 A3023 RMK A01 T01720105  RH  065%=      5-min Rain = 0
KTA1 091848Z 22007KT 17/11 A3023 RMK A01 T01720105  RH  065%=      5-min Rain = 0
KTA1 091849Z 23007KT 17/11 A3023 RMK A01 T01740106  RH  064%=      5-min Rain = 0
KTA1 091850Z 23005KT 18/11 A3023 RMK A01 T01750105  RH  063%=      5-min Rain = 0
KTA1 091851Z 22004KT 17/11 A3022 RMK A01 T01740107  RH  064%=      5-min Rain = 0
KTA1 091852Z 22003KT 18/11 A3022 RMK A01 T01750111  RH  066%=      5-min Rain = 0
KTA1 091853Z 21004KT 18/11 A3022 RMK A01 T01760114  RH  067%=      5-min Rain = 0
KTA1 091854Z 21005KT 18/11 A3022 RMK A01 T01780108  RH  063%=      5-min Rain = 0
KTA1 091855Z 20004KT 18/11 A3022 RMK A01 T01780107  RH  063%=      5-min Rain = 0
KTA1 091856Z 20006KT 18/11 A3022 RMK A01 T01780108  RH  064%=      5-min Rain = 0
KTA1 091857Z 21006KT 18/10 A3022 RMK A01 T01780103  RH  062%=      5-min Rain = 0
KTA1 091858Z 22006KT 18/11 A3022 RMK A01 T01780107  RH  063%=      5-min Rain = 0
KTA1 091859Z 20006KT 18/10 A3022 RMK A01 T01790102  RH  060%=      5-min Rain = 0
KTA1 091900Z 20005KT 18/11 A3022 RMK A01 T01790107  RH  063%=      5-min Rain = 0
KTA1 091901Z 21004KT 18/11 A3022 RMK A01 T01790107  RH  063%=      5-min Rain = 0
KTA1 091902Z 19004KT 18/11 A3022 RMK A01 T01800109  RH  063%=      5-min Rain = 0
KTA1 091903Z 21004KT 18/11 A3022 RMK A01 T01810108  RH  062%=      5-min Rain = 0
KTA1 091904Z 22004KT 18/11 A3022 RMK A01 T01810105  RH  061%=      5-min Rain = 0
KTA1 091905Z 21003KT 18/10 A3022 RMK A01 T01800104  RH  061%=      5-min Rain = 0
KTA1 091906Z 20004KT 18/11 A3022 RMK A01 T01800108  RH  063%=      5-min Rain = 0
KTA1 091907Z 20005KT 18/11 A3022 RMK A01 T01810106  RH  062%=      5-min Rain = 0
KTA1 091908Z 22003KT 18/11 A3022 RMK A01 T01820108  RH  062%=      5-min Rain = 0
KTA1 091909Z 23003KT 18/10 A3022 RMK A01 T01830104  RH  060%=      5-min Rain = 0
KTA1 091910Z 23002KT 18/10 A3022 RMK A01 T01830104  RH  060%=      5-min Rain = 0
KTA1 091911Z 24004KT 18/11 A3021 RMK A01 T01830109  RH  062%=      5-min Rain = 0
KTA1 091912Z 20006KT 18/11 A3021 RMK A01 T01840110  RH  062%=      5-min Rain = 0
KTA1 091913Z 21007KT 19/11 A3021 RMK A01 T01850111  RH  062%=      5-min Rain = 0
KTA1 091914Z 21006KT 19/11 A3021 RMK A01 T01860106  RH  060%=      5-min Rain = 0
KTA1 091915Z 21005KT 18/11 A3021 RMK A01 T01840105  RH  060%=      5-min Rain = 0
KTA1 091916Z 20004KT 18/11 A3021 RMK A01 T01840107  RH  061%=      5-min Rain = 0
KTA1 091917Z 19004KT 18/11 A3021 RMK A01 T01840107  RH  061%=      5-min Rain = 0
KTA1 091918Z 20004KT 18/11 A3021 RMK A01 T01840106  RH  060%=      5-min Rain = 0
KTA1 091919Z 22004KT 18/11 A3021 RMK A01 T01840106  RH  060%=      5-min Rain = 0
KTA1 091920Z 21006KT 18/11 A3021 RMK A01 T01840108  RH  061%=      5-min Rain = 0
KTA1 091921Z 22006KT 19/11 A3021 RMK A01 T01860110  RH  061%=      5-min Rain = 0
KTA1 091922Z 23004KT 19/11 A3021 RMK A01 T01870105  RH  059%=      5-min Rain = 0
KTA1 091923Z 24003KT 19/10 A3021 RMK A01 T01850102  RH  058%=      5-min Rain = 0
KTA1 091924Z 25003KT 19/10 A3021 RMK A01 T01850104  RH  060%=      5-min Rain = 0
KTA1 091925Z 21006KT 19/11 A3021 RMK A01 T01850106  RH  060%=      5-min Rain = 0
KTA1 091926Z 19004KT 19/11 A3021 RMK A01 T01860106  RH  060%=      5-min Rain = 0
KTA1 091927Z 19002KT 19/11 A3021 RMK A01 T01860107  RH  060%=      5-min Rain = 0
KTA1 091928Z 21005KT 19/11 A3021 RMK A01 T01870107  RH  060%=      5-min Rain = 0
KTA1 091929Z 22006KT 19/11 A302 RMK A01 T01890110  RH  060%=      5-min Rain = 0
KTA1 091930Z 22006KT 19/11 A302 RMK A01 T01890106  RH  058%=      5-min Rain = 0
KTA1 091931Z 21004KT 19/10 A302 RMK A01 T01890103  RH  058%=      5-min Rain = 0
KTA1 091932Z 22004KT 19/10 A302 RMK A01 T01870101  RH  057%=      5-min Rain = 0
KTA1 091933Z 21005KT 19/10 A302 RMK A01 T01870104  RH  059%=      5-min Rain = 0
KTA1 091934Z 20005KT 19/10 A302 RMK A01 T01870102  RH  058%=      5-min Rain = 0
KTA1 091935Z 20006KT 19/10 A302 RMK A01 T01870104  RH  059%=      5-min Rain = 0
KTA1 091936Z 21004KT 19/11 A302 RMK A01 T01890107  RH  059%=      5-min Rain = 0
KTA1 091937Z 20005KT 19/10 A302 RMK A01 T01890102  RH  057%=      5-min Rain = 0
KTA1 091938Z 19004KT 19/10 A302 RMK A01 T01890103  RH  057%=      5-min Rain = 0
KTA1 091939Z 19006KT 19/11 A302 RMK A01 T01890109  RH  059%=      5-min Rain = 0
KTA1 091940Z 20006KT 19/11 A302 RMK A01 T01910109  RH  059%=      5-min Rain = 0
KTA1 091941Z 21005KT 19/11 A302 RMK A01 T01920108  RH  058%=      5-min Rain = 0
KTA1 091942Z 18004KT 19/11 A302 RMK A01 T01920110  RH  059%=      5-min Rain = 0
KTA1 091943Z 21004KT 19/11 A302 RMK A01 T01930112  RH  059%=      5-min Rain = 0
KTA1 091944Z 23004KT 19/10 A3019 RMK A01 T01940104  RH  056%=      5-min Rain = 0
KTA1 091945Z 20006KT 19/11 A3019 RMK A01 T01930110  RH  059%=      5-min Rain = 0
KTA1 091946Z 20006KT 19/11 A3019 RMK A01 T01940108  RH  057%=      5-min Rain = 0
KTA1 091947Z 21007KT 20/10 A3019 RMK A01 T01950104  RH  056%=      5-min Rain = 0
KTA1 091948Z 22005KT 19/10 A3019 RMK A01 T01940104  RH  056%=      5-min Rain = 0
KTA1 091949Z 22004KT 19/10 A3019 RMK A01 T01940100  RH  054%=      5-min Rain = 0
KTA1 091950Z 19006KT 19/10 A3019 RMK A01 T01930101  RH  055%=      5-min Rain = 0
KTA1 091951Z 18007KT 19/10 A3019 RMK A01 T01930102  RH  055%=      5-min Rain = 0
KTA1 091952Z 19006KT 19/10 A3019 RMK A01 T01920103  RH  056%=      5-min Rain = 0
KTA1 091953Z 18004KT 19/10 A3019 RMK A01 T01920104  RH  056%=      5-min Rain = 0
KTA1 091954Z 19005KT 19/11 A3019 RMK A01 T01930105  RH  057%=      5-min Rain = 0
KTA1 091955Z 20005KT 19/10 A3019 RMK A01 T01940103  RH  056%=      5-min Rain = 0
KTA1 091956Z 20003KT 19/10 A3019 RMK A01 T01940104  RH  056%=      5-min Rain = 0
KTA1 091957Z 20004KT 20/11 A3019 RMK A01 T01950105  RH  056%=      5-min Rain = 0
KTA1 091958Z 20006KT 20/10 A3019 RMK A01 T01950104  RH  055%=      5-min Rain = 0
KTA1 091959Z 17006KT 20/11 A3019 RMK A01 T01960106  RH  056%=      5-min Rain = 0
KTA1 092000Z 17005KT 20/10 A3019 RMK A01 T01970100  RH  054%=      5-min Rain = 0
KTA1 092001Z 19008KT 20/10 A3018 RMK A01 T01960102  RH  054%=      5-min Rain = 0
KTA1 092002Z 23006KT 20/10 A3018 RMK A01 T01970102  RH  054%=      5-min Rain = 0
KTA1 092003Z 22006KT 20/10 A3018 RMK A01 T01970102  RH  054%=      5-min Rain = 0
KTA1 092004Z 22007KT 20/10 A3018 RMK A01 T01970102  RH  054%=      5-min Rain = 0
KTA1 092005Z 20007KT 20/10 A3018 RMK A01 T01960104  RH  055%=      5-min Rain = 0
KTA1 092006Z 19006KT 20/10 A3018 RMK A01 T01960103  RH  055%=      5-min Rain = 0
KTA1 092007Z 18006KT 20/10 A3018 RMK A01 T01960102  RH  054%=      5-min Rain = 0
KTA1 092008Z 18006KT 20/11 A3018 RMK A01 T01960106  RH  056%=      5-min Rain = 0
KTA1 092009Z 17005KT 20/10 A3018 RMK A01 T01960099  RH  053%=      5-min Rain = 0
KTA1 092010Z 15003KT 20/10 A3018 RMK A01 T01960100  RH  054%=      5-min Rain = 0
KTA1 092011Z 19006KT 20/10 A3018 RMK A01 T01960101  RH  054%=      5-min Rain = 0
KTA1 092012Z 21006KT 20/10 A3018 RMK A01 T01970098  RH  053%=      5-min Rain = 0
KTA1 092013Z 22006KT 20/10 A3018 RMK A01 T01970098  RH  052%=      5-min Rain = 0
KTA1 092014Z 22005KT 20/10 A3018 RMK A01 T01980097  RH  052%=      5-min Rain = 0
KTA1 092015Z 23005KT 20/09 A3018 RMK A01 T01980093  RH  051%=      5-min Rain = 0
KTA1 092016Z 23005KT 20/09 A3018 RMK A01 T01970090  RH  050%=      5-min Rain = 0
KTA1 092017Z 23003KT 20/10 A3018 RMK A01 T01960096  RH  052%=      5-min Rain = 0
KTA1 092018Z 21004KT 20/10 A3018 RMK A01 T01970095  RH  052%=      5-min Rain = 0
KTA1 092019Z 18006KT 20/10 A3018 RMK A01 T01960095  RH  052%=      5-min Rain = 0
KTA1 092020Z 18006KT 20/10 A3018 RMK A01 T01970098  RH  053%=      5-min Rain = 0
KTA1 092021Z 21004KT 20/10 A3018 RMK A01 T01970097  RH  052%=      5-min Rain = 0
KTA1 092022Z 19005KT 20/10 A3018 RMK A01 T01970099  RH  053%=      5-min Rain = 0
KTA1 092023Z 17007KT 20/10 A3018 RMK A01 T01990104  RH  055%=      5-min Rain = 0
KTA1 092024Z 18006KT 20/10 A3018 RMK A01 T02000104  RH  054%=      5-min Rain = 0
KTA1 092025Z 21007KT 20/10 A3018 RMK A01 T02010104  RH  054%=      5-min Rain = 0
KTA1 092026Z 21007KT 20/10 A3018 RMK A01 T02010096  RH  051%=      5-min Rain = 0
KTA1 092027Z 21007KT 20/10 A3018 RMK A01 T02010095  RH  051%=      5-min Rain = 0
KTA1 092028Z 22006KT 20/09 A3017 RMK A01 T02000093  RH  050%=      5-min Rain = 0
KTA1 092029Z 21008KT 20/10 A3017 RMK A01 T01990096  RH  051%=      5-min Rain = 0
KTA1 092030Z 20006KT 20/09 A3017 RMK A01 T02000093  RH  050%=      5-min Rain = 0
KTA1 092031Z 20005KT 20/09 A3017 RMK A01 T02000089  RH  049%=      5-min Rain = 0
KTA1 092032Z 21004KT 20/09 A3017 RMK A01 T02000090  RH  049%=      5-min Rain = 0
KTA1 092033Z 19007KT 20/09 A3017 RMK A01 T01990088  RH  049%=      5-min Rain = 0
KTA1 092034Z 17006KT 20/09 A3017 RMK A01 T01990089  RH  049%=      5-min Rain = 0
KTA1 092035Z 17006KT 20/09 A3017 RMK A01 T02000089  RH  049%=      5-min Rain = 0
KTA1 092036Z 19004KT 20/09 A3017 RMK A01 T02000090  RH  049%=      5-min Rain = 0
KTA1 092037Z 21006KT 20/10 A3017 RMK A01 T02010097  RH  051%=      5-min Rain = 0
KTA1 092038Z 21004KT 20/09 A3017 RMK A01 T02020093  RH  050%=      5-min Rain = 0
KTA1 092039Z 22003KT 20/10 A3017 RMK A01 T02020098  RH  051%=      5-min Rain = 0
KTA1 092040Z 22004KT 20/10 A3017 RMK A01 T02030099  RH  051%=      5-min Rain = 0
KTA1 092041Z 21004KT 20/10 A3017 RMK A01 T02030099  RH  051%=      5-min Rain = 0
KTA1 092042Z 19006KT 20/09 A3017 RMK A01 T02040091  RH  048%=      5-min Rain = 0
KTA1 092043Z 20008KT 20/09 A3017 RMK A01 T02030093  RH  049%=      5-min Rain = 0
KTA1 092044Z 19007KT 20/09 A3017 RMK A01 T02030090  RH  048%=      5-min Rain = 0
KTA1 092045Z 18006KT 20/09 A3017 RMK A01 T02020089  RH  048%=      5-min Rain = 0
KTA1 092046Z 17005KT 20/09 A3017 RMK A01 T02020093  RH  049%=      5-min Rain = 0
KTA1 092047Z 18006KT 20/09 A3017 RMK A01 T02040092  RH  049%=      5-min Rain = 0
KTA1 092048Z 18005KT 20/09 A3017 RMK A01 T02040092  RH  048%=      5-min Rain = 0
KTA1 092049Z 17005KT 20/09 A3017 RMK A01 T02040093  RH  049%=      5-min Rain = 0
KTA1 092050Z 17006KT 20/09 A3016 RMK A01 T02040091  RH  048%=      5-min Rain = 0
KTA1 092051Z 20008KT 20/09 A3016 RMK A01 T02040092  RH  049%=      5-min Rain = 0
KTA1 092052Z 19006KT 20/09 A3016 RMK A01 T02040092  RH  048%=      5-min Rain = 0
KTA1 092053Z 19006KT 20/09 A3016 RMK A01 T02040089  RH  048%=      5-min Rain = 0
KTA1 092054Z 18005KT 20/09 A3016 RMK A01 T02030089  RH  048%=      5-min Rain = 0
KTA1 092055Z 19003KT 20/09 A3016 RMK A01 T02020086  RH  047%=      5-min Rain = 0
KTA1 092056Z 21002KT 20/09 A3016 RMK A01 T02020092  RH  049%=      5-min Rain = 0
KTA1 092057Z 19002KT 20/10 A3016 RMK A01 T02030096  RH  050%=      5-min Rain = 0
KTA1 092058Z 17006KT 21/10 A3016 RMK A01 T02050098  RH  050%=      5-min Rain = 0
KTA1 092059Z 17006KT 21/09 A3016 RMK A01 T02060093  RH  048%=      5-min Rain = 0
KTA1 092100Z 19004KT 21/09 A3016 RMK A01 T02050094  RH  049%=      5-min Rain = 0
KTA1 092101Z 17003KT 21/09 A3016 RMK A01 T02050094  RH  049%=      5-min Rain = 0
KTA1 092102Z 18005KT 21/09 A3016 RMK A01 T02050094  RH  049%=      5-min Rain = 0
KTA1 092103Z 17004KT 21/09 A3016 RMK A01 T02060090  RH  047%=      5-min Rain = 0
KTA1 092104Z 17004KT 21/09 A3016 RMK A01 T02050087  RH  047%=      5-min Rain = 0
KTA1 092105Z 18004KT 21/09 A3016 RMK A01 T02050092  RH  048%=      5-min Rain = 0
KTA1 092106Z 16005KT 21/09 A3016 RMK A01 T02050088  RH  047%=      5-min Rain = 0
KTA1 092107Z 17007KT 21/09 A3016 RMK A01 T02050090  RH  048%=      5-min Rain = 0
KTA1 092108Z 18006KT 21/09 A3016 RMK A01 T02060090  RH  048%=      5-min Rain = 0
KTA1 092109Z 19006KT 21/09 A3016 RMK A01 T02050094  RH  049%=      5-min Rain = 0
KTA1 092110Z 21005KT 21/09 A3016 RMK A01 T02060093  RH  048%=      5-min Rain = 0
KTA1 092111Z 21004KT 21/09 A3016 RMK A01 T02060085  RH  045%=      5-min Rain = 0
KTA1 092112Z 17003KT 21/09 A3016 RMK A01 T02050085  RH  046%=      5-min Rain = 0
KTA1 092113Z 18002KT 21/09 A3016 RMK A01 T02050085  RH  046%=      5-min Rain = 0
KTA1 092114Z 18002KT 21/08 A3016 RMK A01 T02050081  RH  045%=      5-min Rain = 0
KTA1 092115Z 17003KT 21/09 A3016 RMK A01 T02050086  RH  046%=      5-min Rain = 0
KTA1 092116Z 20007KT 21/09 A3016 RMK A01 T02060091  RH  048%=      5-min Rain = 0
KTA1 092117Z 21006KT 21/09 A3016 RMK A01 T02060092  RH  048%=      5-min Rain = 0
KTA1 092118Z 21007KT 21/09 A3016 RMK A01 T02060092  RH  048%=      5-min Rain = 0
KTA1 092119Z 21005KT 21/09 A3016 RMK A01 T02060091  RH  048%=      5-min Rain = 0
KTA1 092120Z 20004KT 21/09 A3016 RMK A01 T02050089  RH  047%=      5-min Rain = 0
KTA1 092121Z 16003KT 20/09 A3016 RMK A01 T02040090  RH  048%=      5-min Rain = 0
KTA1 092122Z 18004KT 21/09 A3016 RMK A01 T02060092  RH  048%=      5-min Rain = 0
KTA1 092123Z 20005KT 21/09 A3016 RMK A01 T02070093  RH  048%=      5-min Rain = 0
KTA1 092124Z 19005KT 21/09 A3016 RMK A01 T02080087  RH  046%=      5-min Rain = 0
KTA1 092125Z 18004KT 21/09 A3016 RMK A01 T02080087  RH  046%=      5-min Rain = 0
KTA1 092126Z 19003KT 21/08 A3016 RMK A01 T02070081  RH  044%=      5-min Rain = 0
KTA1 092127Z 20001KT 21/09 A3016 RMK A01 T02070086  RH  046%=      5-min Rain = 0
KTA1 092128Z 20001KT 21/08 A3015 RMK A01 T02070084  RH  045%=      5-min Rain = 0
KTA1 092129Z 21000KT 21/08 A3015 RMK A01 T02080083  RH  045%=      5-min Rain = 0
KTA1 092130Z 00000KT 21/09 A3015 RMK A01 T02090085  RH  045%=      5-min Rain = 0
KTA1 092131Z 19003KT 21/09 A3015 RMK A01 T02090086  RH  045%=      5-min Rain = 0
KTA1 092132Z 17006KT 21/09 A3015 RMK A01 T02090087  RH  045%=      5-min Rain = 0
KTA1 092133Z 17007KT 21/09 A3015 RMK A01 T02090088  RH  046%=      5-min Rain = 0
KTA1 092134Z 18005KT 21/09 A3015 RMK A01 T02090089  RH  046%=      5-min Rain = 0
KTA1 092135Z 20005KT 21/08 A3015 RMK A01 T02090084  RH  045%=      5-min Rain = 0
KTA1 092136Z 20004KT 21/09 A3015 RMK A01 T02080085  RH  045%=      5-min Rain = 0
KTA1 092137Z 20003KT 21/09 A3015 RMK A01 T02080088  RH  046%=      5-min Rain = 0
KTA1 092138Z 18004KT 21/08 A3015 RMK A01 T02070084  RH  045%=      5-min Rain = 0
KTA1 092139Z 18005KT 21/09 A3015 RMK A01 T02080086  RH  045%=      5-min Rain = 0
KTA1 092140Z 18006KT 21/09 A3015 RMK A01 T02080091  RH  047%=      5-min Rain = 0
KTA1 092141Z 19006KT 21/09 A3015 RMK A01 T02090089  RH  046%=      5-min Rain = 0
KTA1 092142Z 19005KT 21/09 A3015 RMK A01 T02090089  RH  046%=      5-min Rain = 0
KTA1 092143Z 18005KT 21/09 A3015 RMK A01 T02090090  RH  046%=      5-min Rain = 0
KTA1 092144Z 19006KT 21/09 A3015 RMK A01 T02090089  RH  046%=      5-min Rain = 0
KTA1 092145Z 18003KT 21/08 A3015 RMK A01 T02080084  RH  045%=      5-min Rain = 0
KTA1 092146Z 20005KT 21/09 A3015 RMK A01 T02070091  RH  047%=      5-min Rain = 0
KTA1 092147Z 20005KT 21/09 A3015 RMK A01 T02080091  RH  047%=      5-min Rain = 0
KTA1 092148Z 19004KT 21/09 A3015 RMK A01 T02090087  RH  046%=      5-min Rain = 0
KTA1 092149Z 18005KT 21/09 A3015 RMK A01 T02080087  RH  046%=      5-min Rain = 0
KTA1 092150Z 18004KT 21/09 A3015 RMK A01 T02070089  RH  047%=      5-min Rain = 0
KTA1 092151Z 19006KT 21/09 A3015 RMK A01 T02080091  RH  047%=      5-min Rain = 0
KTA1 092152Z 20006KT 21/09 A3015 RMK A01 T02090086  RH  045%=      5-min Rain = 0
KTA1 092153Z 20005KT 21/08 A3015 RMK A01 T02080084  RH  045%=      5-min Rain = 0
KTA1 092154Z 20004KT 21/09 A3015 RMK A01 T02080087  RH  046%=      5-min Rain = 0
KTA1 092155Z 21005KT 21/08 A3014 RMK A01 T02080083  RH  045%=      5-min Rain = 0
KTA1 092156Z 21005KT 21/09 A3014 RMK A01 T02080085  RH  045%=      5-min Rain = 0
KTA1 092157Z 20005KT 21/09 A3014 RMK A01 T02080089  RH  046%=      5-min Rain = 0
KTA1 092158Z 19007KT 21/09 A3014 RMK A01 T02080091  RH  047%=      5-min Rain = 0
KTA1 092159Z 19007KT 21/09 A3014 RMK A01 T02080089  RH  046%=      5-min Rain = 0
KTA1 092200Z 20006KT 21/09 A3014 RMK A01 T02070091  RH  047%=      5-min Rain = 0
KTA1 092201Z 20006KT 21/09 A3014 RMK A01 T02070090  RH  047%=      5-min Rain = 0
KTA1 092202Z 21005KT 21/09 A3014 RMK A01 T02060090  RH  047%=      5-min Rain = 0
KTA1 092203Z 21004KT 21/09 A3014 RMK A01 T02060088  RH  047%=      5-min Rain = 0
KTA1 092204Z 20003KT 21/09 A3014 RMK A01 T02060087  RH  046%=      5-min Rain = 0
KTA1 092205Z 18004KT 21/09 A3014 RMK A01 T02060090  RH  047%=      5-min Rain = 0
KTA1 092206Z 15003KT 21/09 A3014 RMK A01 T02070090  RH  047%=      5-min Rain = 0
KTA1 092207Z 14002KT 21/08 A3014 RMK A01 T02080083  RH  045%=      5-min Rain = 0
KTA1 092208Z 18002KT 21/09 A3014 RMK A01 T02090085  RH  045%=      5-min Rain = 0
KTA1 092209Z 19004KT 21/08 A3014 RMK A01 T02090084  RH  045%=      5-min Rain = 0
KTA1 092210Z 18006KT 21/09 A3014 RMK A01 T02090087  RH  045%=      5-min Rain = 0
KTA1 092211Z 20007KT 21/09 A3014 RMK A01 T02090090  RH  046%=      5-min Rain = 0
KTA1 092212Z 19005KT 21/09 A3014 RMK A01 T02090089  RH  046%=      5-min Rain = 0
KTA1 092213Z 19005KT 21/09 A3014 RMK A01 T02090093  RH  048%=      5-min Rain = 0
KTA1 092214Z 18006KT 21/09 A3014 RMK A01 T02090090  RH  047%=      5-min Rain = 0
KTA1 092215Z 18007KT 21/09 A3014 RMK A01 T02080086  RH  045%=      5-min Rain = 0
KTA1 092216Z 19006KT 21/09 A3014 RMK A01 T02070089  RH  046%=      5-min Rain = 0
KTA1 092217Z 20005KT 21/09 A3014 RMK A01 T02060086  RH  046%=      5-min Rain = 0
KTA1 092218Z 19005KT 21/08 A3014 RMK A01 T02050084  RH  045%=      5-min Rain = 0
KTA1 092219Z 17005KT 21/08 A3014 RMK A01 T02050083  RH  046%=      5-min Rain = 0
KTA1 092220Z 17005KT 20/09 A3014 RMK A01 T02040087  RH  047%=      5-min Rain = 0
KTA1 092221Z 19005KT 20/09 A3014 RMK A01 T02040086  RH  047%=      5-min Rain = 0
KTA1 092222Z 19006KT 21/09 A3014 RMK A01 T02050087  RH  047%=      5-min Rain = 0
KTA1 092223Z 18005KT 21/09 A3014 RMK A01 T02050088  RH  047%=      5-min Rain = 0
KTA1 092224Z 19004KT 21/09 A3014 RMK A01 T02060087  RH  046%=      5-min Rain = 0
KTA1 092225Z 17005KT 21/08 A3014 RMK A01 T02060084  RH  045%=      5-min Rain = 0
KTA1 092226Z 18005KT 21/08 A3014 RMK A01 T02070082  RH  045%=      5-min Rain = 0
KTA1 092227Z 19005KT 21/08 A3014 RMK A01 T02070081  RH  044%=      5-min Rain = 0
KTA1 092228Z 18006KT 21/08 A3014 RMK A01 T02070079  RH  043%=      5-min Rain = 0
KTA1 092229Z 18005KT 21/08 A3014 RMK A01 T02070082  RH  045%=      5-min Rain = 0
KTA1 092230Z 18007KT 21/08 A3014 RMK A01 T02070083  RH  045%=      5-min Rain = 0
KTA1 092231Z 17006KT 21/08 A3014 RMK A01 T02070080  RH  044%=      5-min Rain = 0
KTA1 092232Z 17006KT 21/08 A3014 RMK A01 T02070079  RH  044%=      5-min Rain = 0
KTA1 092233Z 19006KT 21/09 A3014 RMK A01 T02070085  RH  045%=      5-min Rain = 0
KTA1 092234Z 20006KT 21/08 A3014 RMK A01 T02060082  RH  045%=      5-min Rain = 0
KTA1 092235Z 19006KT 21/08 A3014 RMK A01 T02060084  RH  045%=      5-min Rain = 0
KTA1 092236Z 18006KT 21/09 A3014 RMK A01 T02060086  RH  046%=      5-min Rain = 0
KTA1 092237Z 18006KT 21/09 A3014 RMK A01 T02060085  RH  046%=      5-min Rain = 0
KTA1 092238Z 18006KT 21/08 A3014 RMK A01 T02060083  RH  045%=      5-min Rain = 0
KTA1 092239Z 18004KT 21/08 A3014 RMK A01 T02060082  RH  045%=      5-min Rain = 0
KTA1 092240Z 18005KT 21/08 A3014 RMK A01 T02060084  RH  045%=      5-min Rain = 0
KTA1 092241Z 17004KT 21/09 A3014 RMK A01 T02060087  RH  046%=      5-min Rain = 0
KTA1 092242Z 16007KT 21/09 A3014 RMK A01 T02060086  RH  046%=      5-min Rain = 0
KTA1 092243Z 18007KT 21/08 A3014 RMK A01 T02070083  RH  045%=      5-min Rain = 0
KTA1 092244Z 20005KT 21/09 A3014 RMK A01 T02070088  RH  046%=      5-min Rain = 0
KTA1 092245Z 18005KT 21/09 A3014 RMK A01 T02060090  RH  047%=      5-min Rain = 0
KTA1 092246Z 18008KT 21/09 A3014 RMK A01 T02060087  RH  046%=      5-min Rain = 0
KTA1 092247Z 18008KT 21/08 A3014 RMK A01 T02060084  RH  046%=      5-min Rain = 0
KTA1 092248Z 18007KT 21/08 A3014 RMK A01 T02050084  RH  046%=      5-min Rain = 0
KTA1 092249Z 19006KT 21/08 A3014 RMK A01 T02050083  RH  045%=      5-min Rain = 0
KTA1 092250Z 19007KT 20/08 A3014 RMK A01 T02040083  RH  046%=      5-min Rain = 0
KTA1 092251Z 18007KT 20/08 A3014 RMK A01 T02040083  RH  046%=      5-min Rain = 0
KTA1 092252Z 18008KT 20/08 A3014 RMK A01 T02040084  RH  046%=      5-min Rain = 0
KTA1 092253Z 18007KT 20/08 A3014 RMK A01 T02030084  RH  046%=      5-min Rain = 0
KTA1 092254Z 18006KT 20/09 A3014 RMK A01 T02030085  RH  047%=      5-min Rain = 0
KTA1 092255Z 17006KT 20/09 A3014 RMK A01 T02030086  RH  047%=      5-min Rain = 0
KTA1 092256Z 18006KT 20/09 A3014 RMK A01 T02030085  RH  046%=      5-min Rain = 0
KTA1 092257Z 18007KT 20/09 A3014 RMK A01 T02030086  RH  047%=      5-min Rain = 0
KTA1 092258Z 17008KT 20/08 A3014 RMK A01 T02030084  RH  046%=      5-min Rain = 0
KTA1 092259Z 18007KT 20/08 A3014 RMK A01 T02030083  RH  046%=      5-min Rain = 0
KTA1 092300Z 18008KT 20/08 A3014 RMK A01 T02020083  RH  046%=      5-min Rain = 0
KTA1 092301Z 18007KT 20/08 A3014 RMK A01 T02020082  RH  046%=      5-min Rain = 0
KTA1 092302Z 18007KT 20/08 A3014 RMK A01 T02020082  RH  046%=      5-min Rain = 0
KTA1 092303Z 18007KT 20/08 A3014 RMK A01 T02020083  RH  046%=      5-min Rain = 0
KTA1 092304Z 18006KT 20/08 A3014 RMK A01 T02020082  RH  046%=      5-min Rain = 0
KTA1 092305Z 18007KT 20/08 A3014 RMK A01 T02020082  RH  046%=      5-min Rain = 0
KTA1 092306Z 18006KT 20/08 A3013 RMK A01 T02020084  RH  047%=      5-min Rain = 0
KTA1 092307Z 18006KT 20/08 A3013 RMK A01 T02010084  RH  047%=      5-min Rain = 0
KTA1 092308Z 18007KT 20/08 A3013 RMK A01 T02010083  RH  047%=      5-min Rain = 0
KTA1 092309Z 19006KT 20/08 A3013 RMK A01 T02010081  RH  046%=      5-min Rain = 0
KTA1 092310Z 19006KT 20/08 A3013 RMK A01 T02010084  RH  047%=      5-min Rain = 0
KTA1 092311Z 18006KT 20/09 A3013 RMK A01 T02000085  RH  047%=      5-min Rain = 0
KTA1 092312Z 17007KT 20/09 A3013 RMK A01 T02000087  RH  048%=      5-min Rain = 0
KTA1 092313Z 18007KT 20/09 A3013 RMK A01 T01990092  RH  050%=      5-min Rain = 0
KTA1 092314Z 18006KT 20/09 A3013 RMK A01 T01980094  RH  051%=      5-min Rain = 0
KTA1 092315Z 17004KT 20/10 A3013 RMK A01 T01970097  RH  052%=      5-min Rain = 0
KTA1 092316Z 17004KT 20/10 A3013 RMK A01 T01970099  RH  053%=      5-min Rain = 0
KTA1 092317Z 17004KT 20/10 A3014 RMK A01 T01970100  RH  054%=      5-min Rain = 0
KTA1 092318Z 17004KT 20/10 A3014 RMK A01 T01960101  RH  054%=      5-min Rain = 0
KTA1 092319Z 17003KT 20/10 A3014 RMK A01 T01950102  RH  055%=      5-min Rain = 0
KTA1 092320Z 17004KT 19/10 A3014 RMK A01 T01940101  RH  055%=      5-min Rain = 0
KTA1 092321Z 17004KT 19/10 A3014 RMK A01 T01930100  RH  055%=      5-min Rain = 0
KTA1 092322Z 17004KT 19/10 A3014 RMK A01 T01930101  RH  055%=      5-min Rain = 0
KTA1 092323Z 16004KT 19/10 A3014 RMK A01 T01920101  RH  055%=      5-min Rain = 0
KTA1 092324Z 17005KT 19/10 A3013 RMK A01 T01920101  RH  055%=      5-min Rain = 0
KTA1 092325Z 17005KT 19/10 A3013 RMK A01 T01920101  RH  056%=      5-min Rain = 0
KTA1 092326Z 18005KT 19/10 A3013 RMK A01 T01910099  RH  055%=      5-min Rain = 0
KTA1 092327Z 17005KT 19/10 A3013 RMK A01 T01910098  RH  055%=      5-min Rain = 0
KTA1 092328Z 17005KT 19/10 A3013 RMK A01 T01900099  RH  055%=      5-min Rain = 0
KTA1 092329Z 17005KT 19/10 A3013 RMK A01 T01910099  RH  055%=      5-min Rain = 0
KTA1 092330Z 17004KT 19/10 A3013 RMK A01 T01900099  RH  055%=      5-min Rain = 0
KTA1 092331Z 17005KT 19/10 A3013 RMK A01 T01900099  RH  056%=      5-min Rain = 0
KTA1 092332Z 16005KT 19/10 A3013 RMK A01 T01890099  RH  056%=      5-min Rain = 0
KTA1 092333Z 16004KT 19/10 A3013 RMK A01 T01880098  RH  056%=      5-min Rain = 0
KTA1 092334Z 16004KT 19/10 A3013 RMK A01 T01870099  RH  057%=      5-min Rain = 0
KTA1 092335Z 15004KT 19/10 A3013 RMK A01 T01860099  RH  057%=      5-min Rain = 0
KTA1 092336Z 15005KT 18/10 A3013 RMK A01 T01840099  RH  057%=      5-min Rain = 0
KTA1 092337Z 15005KT 18/10 A3013 RMK A01 T01830099  RH  058%=      5-min Rain = 0
KTA1 092338Z 16004KT 18/10 A3013 RMK A01 T01810099  RH  059%=      5-min Rain = 0
KTA1 092339Z 17004KT 18/10 A3013 RMK A01 T01800098  RH  058%=      5-min Rain = 0
KTA1 092340Z 17004KT 18/10 A3013 RMK A01 T01800099  RH  059%=      5-min Rain = 0
KTA1 092341Z 15003KT 18/10 A3013 RMK A01 T01790100  RH  060%=      5-min Rain = 0
KTA1 092342Z 16003KT 18/10 A3013 RMK A01 T01780100  RH  060%=      5-min Rain = 0
KTA1 092343Z 16003KT 18/10 A3013 RMK A01 T01770101  RH  061%=      5-min Rain = 0
KTA1 092344Z 17003KT 18/10 A3013 RMK A01 T01750101  RH  062%=      5-min Rain = 0
KTA1 092345Z 17003KT 17/10 A3013 RMK A01 T01740101  RH  062%=      5-min Rain = 0
KTA1 092346Z 16003KT 17/10 A3013 RMK A01 T01730101  RH  062%=      5-min Rain = 0
KTA1 092347Z 16004KT 17/10 A3013 RMK A01 T01720101  RH  063%=      5-min Rain = 0
KTA1 092348Z 15004KT 17/10 A3014 RMK A01 T01720101  RH  063%=      5-min Rain = 0
KTA1 092349Z 15005KT 17/10 A3014 RMK A01 T01710100  RH  063%=      5-min Rain = 0
KTA1 092350Z 15005KT 17/10 A3014 RMK A01 T01690101  RH  064%=      5-min Rain = 0
KTA1 092351Z 15005KT 17/10 A3014 RMK A01 T01680102  RH  065%=      5-min Rain = 0
KTA1 092352Z 15006KT 17/10 A3014 RMK A01 T01670102  RH  065%=      5-min Rain = 0
KTA1 092353Z 15006KT 17/10 A3014 RMK A01 T01670101  RH  065%=      5-min Rain = 0
KTA1 092354Z 16006KT 17/10 A3014 RMK A01 T01670101  RH  065%=      5-min Rain = 0
KTA1 092355Z 16005KT 17/10 A3014 RMK A01 T01660100  RH  065%=      5-min Rain = 0
KTA1 092356Z 16004KT 17/10 A3014 RMK A01 T01660101  RH  065%=      5-min Rain = 0
KTA1 092357Z 16004KT 17/10 A3014 RMK A01 T01660102  RH  066%=      5-min Rain = 0
KTA1 092358Z 17003KT 17/10 A3014 RMK A01 T01650103  RH  067%=      5-min Rain = 0
KTA1 092359Z 17004KT 16/10 A3014 RMK A01 T01640104  RH  067%=      5-min Rain = 0
KTA1 100000Z 17004KT 16/10 A3014 RMK A01 T01630104  RH  068%=      5-min Rain = 0
KTA1 100001Z 18004KT 16/10 A3014 RMK A01 T01630103  RH  067%=      5-min Rain = 0
KTA1 100002Z 17004KT 16/10 A3014 RMK A01 T01630103  RH  067%=      5-min Rain = 0
KTA1 100003Z 17005KT 16/10 A3014 RMK A01 T01630102  RH  067%=      5-min Rain = 0
KTA1 100004Z 17005KT 16/10 A3014 RMK A01 T01640102  RH  067%=      5-min Rain = 0
KTA1 100005Z 17005KT 16/10 A3014 RMK A01 T01640102  RH  067%=      5-min Rain = 0
KTA1 100006Z 17005KT 16/10 A3014 RMK A01 T01640102  RH  066%=      5-min Rain = 0
KTA1 100007Z 17005KT 17/10 A3014 RMK A01 T01650102  RH  066%=      5-min Rain = 0
KTA1 100008Z 17005KT 17/10 A3014 RMK A01 T01650102  RH  067%=      5-min Rain = 0
KTA1 100009Z 16007KT 16/10 A3014 RMK A01 T01640102  RH  066%=      5-min Rain = 0
KTA1 100010Z 16007KT 17/10 A3014 RMK A01 T01650102  RH  067%=      5-min Rain = 0
KTA1 100011Z 16007KT 17/10 A3014 RMK A01 T01650103  RH  067%=      5-min Rain = 0
KTA1 100012Z 16007KT 16/10 A3014 RMK A01 T01640102  RH  067%=      5-min Rain = 0
KTA1 100013Z 16007KT 17/10 A3014 RMK A01 T01650103  RH  067%=      5-min Rain = 0
KTA1 100014Z 16006KT 16/10 A3014 RMK A01 T01630103  RH  067%=      5-min Rain = 0
KTA1 100015Z 16006KT 16/10 A3014 RMK A01 T01620103  RH  068%=      5-min Rain = 0
KTA1 100016Z 16007KT 16/10 A3014 RMK A01 T01620103  RH  068%=      5-min Rain = 0
KTA1 100017Z 16007KT 16/10 A3014 RMK A01 T01610103  RH  069%=      5-min Rain = 0
KTA1 100018Z 16007KT 16/10 A3014 RMK A01 T01600103  RH  069%=      5-min Rain = 0
KTA1 100019Z 16007KT 16/10 A3014 RMK A01 T01590104  RH  069%=      5-min Rain = 0
KTA1 100020Z 16007KT 16/10 A3014 RMK A01 T01580103  RH  070%=      5-min Rain = 0
KTA1 100021Z 16007KT 16/10 A3014 RMK A01 T01580104  RH  070%=      5-min Rain = 0
KTA1 100022Z 16007KT 16/10 A3014 RMK A01 T01580104  RH  070%=      5-min Rain = 0
KTA1 100023Z 16007KT 16/10 A3014 RMK A01 T01570104  RH  070%=      5-min Rain = 0
KTA1 100024Z 16007KT 16/10 A3014 RMK A01 T01570104  RH  071%=      5-min Rain = 0
KTA1 100025Z 16007KT 16/10 A3014 RMK A01 T01570104  RH  071%=      5-min Rain = 0
KTA1 100026Z 16007KT 16/10 A3014 RMK A01 T01560104  RH  071%=      5-min Rain = 0
KTA1 100027Z 16007KT 16/11 A3014 RMK A01 T01560105  RH  071%=      5-min Rain = 0
KTA1 100028Z 17006KT 16/10 A3014 RMK A01 T01550104  RH  072%=      5-min Rain = 0
KTA1 100029Z 17006KT 16/11 A3014 RMK A01 T01550105  RH  072%=      5-min Rain = 0
KTA1 100030Z 17006KT 15/11 A3014 RMK A01 T01540105  RH  072%=      5-min Rain = 0
KTA1 100031Z 17006KT 15/11 A3014 RMK A01 T01530105  RH  073%=      5-min Rain = 0
KTA1 100032Z 17006KT 15/11 A3014 RMK A01 T01530105  RH  073%=      5-min Rain = 0
KTA1 100033Z 17007KT 15/11 A3014 RMK A01 T01520105  RH  073%=      5-min Rain = 0
KTA1 100034Z 18006KT 15/11 A3014 RMK A01 T01520105  RH  073%=      5-min Rain = 0
KTA1 100035Z 17006KT 15/11 A3014 RMK A01 T01530105  RH  073%=      5-min Rain = 0
KTA1 100036Z 17006KT 15/11 A3014 RMK A01 T01530105  RH  073%=      5-min Rain = 0
KTA1 100037Z 17006KT 15/11 A3014 RMK A01 T01530105  RH  073%=      5-min Rain = 0
KTA1 100038Z 17006KT 15/11 A3014 RMK A01 T01530105  RH  073%=      5-min Rain = 0
KTA1 100039Z 17006KT 15/10 A3014 RMK A01 T01520104  RH  073%=      5-min Rain = 0
KTA1 100040Z 17006KT 15/10 A3014 RMK A01 T01520104  RH  073%=      5-min Rain = 0
KTA1 100041Z 17006KT 15/10 A3014 RMK A01 T01520104  RH  073%=      5-min Rain = 0
KTA1 100042Z 17006KT 15/10 A3014 RMK A01 T01530104  RH  073%=      5-min Rain = 0
KTA1 100043Z 17006KT 15/10 A3013 RMK A01 T01530104  RH  073%=      5-min Rain = 0
KTA1 100044Z 17006KT 15/10 A3013 RMK A01 T01530104  RH  073%=      5-min Rain = 0
KTA1 100045Z 17006KT 15/10 A3013 RMK A01 T01530104  RH  073%=      5-min Rain = 0
KTA1 100046Z 17006KT 15/10 A3013 RMK A01 T01520104  RH  073%=      5-min Rain = 0
KTA1 100047Z 17006KT 15/10 A3013 RMK A01 T01510104  RH  073%=      5-min Rain = 0
KTA1 100048Z 17006KT 15/10 A3014 RMK A01 T01510104  RH  073%=      5-min Rain = 0
KTA1 100049Z 17006KT 15/10 A3014 RMK A01 T01500104  RH  074%=      5-min Rain = 0
KTA1 100050Z 17005KT 15/10 A3014 RMK A01 T01510104  RH  074%=      5-min Rain = 0
KTA1 100051Z 17006KT 15/10 A3014 RMK A01 T01500104  RH  074%=      5-min Rain = 0
KTA1 100052Z 17006KT 15/10 A3014 RMK A01 T01500104  RH  074%=      5-min Rain = 0
KTA1 100053Z 17006KT 15/11 A3014 RMK A01 T01500105  RH  074%=      5-min Rain = 0
KTA1 100054Z 17006KT 15/11 A3014 RMK A01 T01510105  RH  074%=      5-min Rain = 0
KTA1 100055Z 18006KT 15/10 A3014 RMK A01 T01510104  RH  074%=      5-min Rain = 0
KTA1 100056Z 18006KT 15/10 A3014 RMK A01 T01510104  RH  074%=      5-min Rain = 0
KTA1 100057Z 18006KT 15/10 A3014 RMK A01 T01510104  RH  074%=      5-min Rain = 0
KTA1 100058Z 18007KT 15/10 A3014 RMK A01 T01510104  RH  074%=      5-min Rain = 0
KTA1 100059Z 18006KT 15/10 A3014 RMK A01 T01510104  RH  074%=      5-min Rain = 0
KTA1 100100Z 18006KT 15/10 A3014 RMK A01 T01500104  RH  074%=      5-min Rain = 0
KTA1 100101Z 18006KT 15/10 A3014 RMK A01 T01500104  RH  074%=      5-min Rain = 0
KTA1 100102Z 18006KT 15/10 A3014 RMK A01 T01500104  RH  074%=      5-min Rain = 0
KTA1 100103Z 18006KT 15/10 A3014 RMK A01 T01500104  RH  074%=      5-min Rain = 0
KTA1 100104Z 18006KT 15/10 A3014 RMK A01 T01490104  RH  074%=      5-min Rain = 0
KTA1 100105Z 18006KT 15/10 A3014 RMK A01 T01490104  RH  074%=      5-min Rain = 0
KTA1 100106Z 17006KT 15/10 A3014 RMK A01 T01480104  RH  075%=      5-min Rain = 0
KTA1 100107Z 18006KT 15/10 A3014 RMK A01 T01470103  RH  075%=      5-min Rain = 0
KTA1 100108Z 18006KT 15/10 A3014 RMK A01 T01470103  RH  075%=      5-min Rain = 0
KTA1 100109Z 18006KT 15/10 A3014 RMK A01 T01460103  RH  076%=      5-min Rain = 0
KTA1 100110Z 18006KT 15/10 A3014 RMK A01 T01460104  RH  076%=      5-min Rain = 0
KTA1 100111Z 18006KT 15/10 A3014 RMK A01 T01450103  RH  076%=      5-min Rain = 0
KTA1 100112Z 18006KT 14/10 A3014 RMK A01 T01440103  RH  076%=      5-min Rain = 0
KTA1 100113Z 18006KT 14/10 A3014 RMK A01 T01430103  RH  077%=      5-min Rain = 0
KTA1 100114Z 18007KT 14/10 A3014 RMK A01 T01430103  RH  077%=      5-min Rain = 0
KTA1 100115Z 18007KT 14/10 A3014 RMK A01 T01430103  RH  077%=      5-min Rain = 0
KTA1 100116Z 18007KT 14/10 A3014 RMK A01 T01420103  RH  077%=      5-min Rain = 0
KTA1 100117Z 18007KT 14/10 A3014 RMK A01 T01420103  RH  077%=      5-min Rain = 0
KTA1 100118Z 18007KT 14/10 A3014 RMK A01 T01420103  RH  077%=      5-min Rain = 0
KTA1 100119Z 18007KT 14/10 A3014 RMK A01 T01410103  RH  078%=      5-min Rain = 0
KTA1 100120Z 18007KT 14/10 A3014 RMK A01 T01410103  RH  078%=      5-min Rain = 0
KTA1 100121Z 18007KT 14/10 A3014 RMK A01 T01410103  RH  077%=      5-min Rain = 0
KTA1 100122Z 18007KT 14/10 A3014 RMK A01 T01410102  RH  077%=      5-min Rain = 0
KTA1 100123Z 18007KT 14/10 A3014 RMK A01 T01410102  RH  077%=      5-min Rain = 0
KTA1 100124Z 18007KT 14/10 A3014 RMK A01 T01410102  RH  078%=      5-min Rain = 0
KTA1 100125Z 18007KT 14/10 A3014 RMK A01 T01400102  RH  078%=      5-min Rain = 0
KTA1 100126Z 18008KT 14/10 A3014 RMK A01 T01390102  RH  078%=      5-min Rain = 0
KTA1 100127Z 18008KT 14/10 A3014 RMK A01 T01390102  RH  078%=      5-min Rain = 0
KTA1 100128Z 18008KT 14/10 A3014 RMK A01 T01380102  RH  079%=      5-min Rain = 0
KTA1 100129Z 18008KT 14/10 A3014 RMK A01 T01380101  RH  079%=      5-min Rain = 0
KTA1 100130Z 19008KT 14/10 A3014 RMK A01 T01370101  RH  079%=      5-min Rain = 0
KTA1 100131Z 18007KT 14/10 A3014 RMK A01 T01370101  RH  079%=      5-min Rain = 0
KTA1 100132Z 18007KT 14/10 A3014 RMK A01 T01370101  RH  079%=      5-min Rain = 0
KTA1 100133Z 18007KT 14/10 A3014 RMK A01 T01360101  RH  079%=      5-min Rain = 0
KTA1 100134Z 19007KT 14/10 A3014 RMK A01 T01350101  RH  080%=      5-min Rain = 0
KTA1 100135Z 19007KT 14/10 A3014 RMK A01 T01350101  RH  080%=      5-min Rain = 0
KTA1 100136Z 19007KT 13/10 A3014 RMK A01 T01340101  RH  080%=      5-min Rain = 0
KTA1 100137Z 19007KT 13/10 A3014 RMK A01 T01340101  RH  080%=      5-min Rain = 0
KTA1 100138Z 19007KT 13/10 A3014 RMK A01 T01340101  RH  080%=      5-min Rain = 0
KTA1 100139Z 19006KT 13/10 A3014 RMK A01 T01340101  RH  081%=      5-min Rain = 0
KTA1 100140Z 19007KT 13/10 A3014 RMK A01 T01330100  RH  081%=      5-min Rain = 0
KTA1 100141Z 19007KT 13/10 A3014 RMK A01 T01330100  RH  081%=      5-min Rain = 0
KTA1 100142Z 19006KT 13/10 A3014 RMK A01 T01320100  RH  081%=      5-min Rain = 0
KTA1 100143Z 18006KT 13/10 A3014 RMK A01 T01330101  RH  081%=      5-min Rain = 0
KTA1 100144Z 18006KT 13/10 A3014 RMK A01 T01320100  RH  081%=      5-min Rain = 0
KTA1 100145Z 18006KT 13/10 A3014 RMK A01 T01320100  RH  081%=      5-min Rain = 0
KTA1 100146Z 18006KT 13/10 A3014 RMK A01 T01320100  RH  081%=      5-min Rain = 0
KTA1 100147Z 18006KT 13/10 A3014 RMK A01 T01310100  RH  081%=      5-min Rain = 0
KTA1 100148Z 18006KT 13/10 A3014 RMK A01 T01310100  RH  081%=      5-min Rain = 0
KTA1 100149Z 18006KT 13/10 A3014 RMK A01 T01310100  RH  081%=      5-min Rain = 0
KTA1 100150Z 18006KT 13/10 A3014 RMK A01 T01310100  RH  081%=      5-min Rain = 0
KTA1 100151Z 18007KT 13/10 A3014 RMK A01 T01310100  RH  081%=      5-min Rain = 0
KTA1 100152Z 18007KT 13/10 A3014 RMK A01 T01310099  RH  081%=      5-min Rain = 0
KTA1 100153Z 18006KT 13/10 A3014 RMK A01 T01310099  RH  081%=      5-min Rain = 0
KTA1 100154Z 18007KT 13/10 A3014 RMK A01 T01310099  RH  081%=      5-min Rain = 0
KTA1 100155Z 18007KT 13/10 A3014 RMK A01 T01320099  RH  080%=      5-min Rain = 0
KTA1 100156Z 18006KT 13/10 A3014 RMK A01 T01320099  RH  080%=      5-min Rain = 0
KTA1 100157Z 18006KT 13/10 A3014 RMK A01 T01320098  RH  080%=      5-min Rain = 0
KTA1 100158Z 18007KT 13/10 A3014 RMK A01 T01320099  RH  080%=      5-min Rain = 0
KTA1 100159Z 18007KT 13/10 A3014 RMK A01 T01320099  RH  080%=      5-min Rain = 0
KTA1 100200Z 18007KT 13/10 A3014 RMK A01 T01320099  RH  080%=      5-min Rain = 0
KTA1 100201Z 18006KT 13/10 A3014 RMK A01 T01320098  RH  080%=      5-min Rain = 0
KTA1 100202Z 18006KT 13/10 A3014 RMK A01 T01320099  RH  080%=      5-min Rain = 0
KTA1 100203Z 18006KT 13/10 A3014 RMK A01 T01310099  RH  081%=      5-min Rain = 0
KTA1 100204Z 18006KT 13/10 A3014 RMK A01 T01310099  RH  081%=      5-min Rain = 0
KTA1 100205Z 18006KT 13/10 A3014 RMK A01 T01310099  RH  081%=      5-min Rain = 0
KTA1 100206Z 18006KT 13/10 A3014 RMK A01 T01310099  RH  081%=      5-min Rain = 0
KTA1 100207Z 18005KT 13/10 A3014 RMK A01 T01310099  RH  081%=      5-min Rain = 0
KTA1 100208Z 18004KT 13/10 A3014 RMK A01 T01310099  RH  081%=      5-min Rain = 0
KTA1 100209Z 17004KT 13/10 A3014 RMK A01 T01310099  RH  081%=      5-min Rain = 0
KTA1 100210Z 18004KT 13/10 A3014 RMK A01 T01300098  RH  081%=      5-min Rain = 0
KTA1 100211Z 18004KT 13/10 A3014 RMK A01 T01300099  RH  081%=      5-min Rain = 0
KTA1 100212Z 18004KT 13/10 A3014 RMK A01 T01300098  RH  081%=      5-min Rain = 0
KTA1 100213Z 18004KT 13/10 A3014 RMK A01 T01300098  RH  081%=      5-min Rain = 0
KTA1 100214Z 18004KT 13/10 A3014 RMK A01 T01300098  RH  081%=      5-min Rain = 0
KTA1 100215Z 17004KT 13/10 A3014 RMK A01 T01300098  RH  081%=      5-min Rain = 0
KTA1 100216Z 18004KT 13/10 A3014 RMK A01 T01310098  RH  081%=      5-min Rain = 0
KTA1 100217Z 17004KT 13/10 A3014 RMK A01 T01310098  RH  080%=      5-min Rain = 0
KTA1 100218Z 17004KT 13/10 A3014 RMK A01 T01310098  RH  080%=      5-min Rain = 0
KTA1 100219Z 18004KT 13/10 A3014 RMK A01 T01310098  RH  080%=      5-min Rain = 0
KTA1 100220Z 18005KT 13/10 A3014 RMK A01 T01310098  RH  080%=      5-min Rain = 0
KTA1 100221Z 19006KT 13/10 A3014 RMK A01 T01320098  RH  080%=      5-min Rain = 0
KTA1 100222Z 19006KT 13/10 A3014 RMK A01 T01320098  RH  080%=      5-min Rain = 0
KTA1 100223Z 19006KT 13/10 A3014 RMK A01 T01320098  RH  080%=      5-min Rain = 0
KTA1 100224Z 19006KT 13/10 A3014 RMK A01 T01320098  RH  080%=      5-min Rain = 0
KTA1 100225Z 19007KT 13/10 A3014 RMK A01 T01320098  RH  080%=      5-min Rain = 0
KTA1 100226Z 19007KT 13/10 A3014 RMK A01 T01310098  RH  080%=      5-min Rain = 0
KTA1 100227Z 19006KT 13/10 A3014 RMK A01 T01310098  RH  081%=      5-min Rain = 0
KTA1 100228Z 19006KT 13/10 A3014 RMK A01 T01300098  RH  081%=      5-min Rain = 0
KTA1 100229Z 19007KT 13/10 A3014 RMK A01 T01300098  RH  081%=      5-min Rain = 0
KTA1 100230Z 18007KT 13/10 A3014 RMK A01 T01300098  RH  081%=      5-min Rain = 0
KTA1 100231Z 18006KT 13/10 A3014 RMK A01 T01290098  RH  081%=      5-min Rain = 0
KTA1 100232Z 18006KT 13/10 A3014 RMK A01 T01290098  RH  081%=      5-min Rain = 0
KTA1 100233Z 18006KT 13/10 A3014 RMK A01 T01290098  RH  081%=      5-min Rain = 0
KTA1 100234Z 18006KT 13/10 A3014 RMK A01 T01290097  RH  081%=      5-min Rain = 0
KTA1 100235Z 18006KT 13/10 A3014 RMK A01 T01290098  RH  081%=      5-min Rain = 0
KTA1 100236Z 18006KT 13/10 A3014 RMK A01 T01290097  RH  081%=      5-min Rain = 0
KTA1 100237Z 18007KT 13/10 A3014 RMK A01 T01290098  RH  081%=      5-min Rain = 0
KTA1 100238Z 18005KT 13/10 A3014 RMK A01 T01290098  RH  081%=      5-min Rain = 0
KTA1 100239Z 18005KT 13/10 A3014 RMK A01 T01290098  RH  081%=      5-min Rain = 0
KTA1 100240Z 18005KT 13/10 A3014 RMK A01 T01290098  RH  081%=      5-min Rain = 0
KTA1 100241Z 18005KT 13/10 A3014 RMK A01 T01290098  RH  081%=      5-min Rain = 0
KTA1 100242Z 18005KT 13/10 A3014 RMK A01 T01290098  RH  081%=      5-min Rain = 0
KTA1 100243Z 18005KT 13/10 A3014 RMK A01 T01280098  RH  082%=      5-min Rain = 0
KTA1 100244Z 18006KT 13/10 A3014 RMK A01 T01280097  RH  082%=      5-min Rain = 0
KTA1 100245Z 18006KT 13/10 A3014 RMK A01 T01280098  RH  082%=      5-min Rain = 0
KTA1 100246Z 18007KT 13/10 A3014 RMK A01 T01280098  RH  082%=      5-min Rain = 0
KTA1 100247Z 18006KT 13/10 A3014 RMK A01 T01280097  RH  082%=      5-min Rain = 0
KTA1 100248Z 18007KT 13/10 A3014 RMK A01 T01280097  RH  082%=      5-min Rain = 0
KTA1 100249Z 18007KT 13/10 A3014 RMK A01 T01280097  RH  081%=      5-min Rain = 0
KTA1 100250Z 18007KT 13/10 A3014 RMK A01 T01280097  RH  081%=      5-min Rain = 0
KTA1 100251Z 18007KT 13/10 A3014 RMK A01 T01280097  RH  081%=      5-min Rain = 0
KTA1 100252Z 18007KT 13/10 A3014 RMK A01 T01270097  RH  082%=      5-min Rain = 0
KTA1 100253Z 18007KT 13/10 A3014 RMK A01 T01260097  RH  082%=      5-min Rain = 0
KTA1 100254Z 18007KT 13/10 A3014 RMK A01 T01250097  RH  083%=      5-min Rain = 0
KTA1 100255Z 18006KT 12/10 A3014 RMK A01 T01240097  RH  083%=      5-min Rain = 0
KTA1 100256Z 17005KT 12/10 A3014 RMK A01 T01240097  RH  084%=      5-min Rain = 0
KTA1 100257Z 17006KT 12/10 A3014 RMK A01 T01230097  RH  084%=      5-min Rain = 0
KTA1 100258Z 18005KT 12/10 A3014 RMK A01 T01240097  RH  084%=      5-min Rain = 0
KTA1 100259Z 18005KT 12/10 A3014 RMK A01 T01240097  RH  084%=      5-min Rain = 0
KTA1 100300Z 18006KT 12/10 A3014 RMK A01 T01240097  RH  083%=      5-min Rain = 0
KTA1 100301Z 18006KT 12/10 A3014 RMK A01 T01240097  RH  083%=      5-min Rain = 0
KTA1 100302Z 18006KT 12/10 A3014 RMK A01 T01240097  RH  083%=      5-min Rain = 0
KTA1 100303Z 18006KT 12/10 A3014 RMK A01 T01240097  RH  083%=      5-min Rain = 0
KTA1 100304Z 17006KT 13/10 A3014 RMK A01 T01250097  RH  083%=      5-min Rain = 0
KTA1 100305Z 17006KT 13/10 A3014 RMK A01 T01250097  RH  083%=      5-min Rain = 0
KTA1 100306Z 17006KT 13/10 A3014 RMK A01 T01250097  RH  083%=      5-min Rain = 0
KTA1 100307Z 18006KT 13/10 A3014 RMK A01 T01250097  RH  083%=      5-min Rain = 0
KTA1 100308Z 18006KT 13/10 A3014 RMK A01 T01250097  RH  083%=      5-min Rain = 0
KTA1 100309Z 18006KT 12/10 A3014 RMK A01 T01240097  RH  083%=      5-min Rain = 0
KTA1 100310Z 17006KT 12/10 A3014 RMK A01 T01230097  RH  084%=      5-min Rain = 0
KTA1 100311Z 18005KT 12/10 A3014 RMK A01 T01230097  RH  084%=      5-min Rain = 0
KTA1 100312Z 18006KT 12/10 A3014 RMK A01 T01230097  RH  084%=      5-min Rain = 0
KTA1 100313Z 18006KT 12/10 A3014 RMK A01 T01220096  RH  084%=      5-min Rain = 0
KTA1 100314Z 18007KT 12/10 A3014 RMK A01 T01210096  RH  085%=      5-min Rain = 0
KTA1 100315Z 18007KT 12/10 A3014 RMK A01 T01220096  RH  085%=      5-min Rain = 0
KTA1 100316Z 18008KT 12/10 A3014 RMK A01 T01220096  RH  084%=      5-min Rain = 0
KTA1 100317Z 19007KT 12/10 A3014 RMK A01 T01220096  RH  084%=      5-min Rain = 0
KTA1 100318Z 19007KT 12/10 A3014 RMK A01 T01220096  RH  084%=      5-min Rain = 0
KTA1 100319Z 18007KT 12/10 A3014 RMK A01 T01220096  RH  084%=      5-min Rain = 0
KTA1 100320Z 18007KT 12/10 A3014 RMK A01 T01220096  RH  084%=      5-min Rain = 0
KTA1 100321Z 18007KT 12/10 A3014 RMK A01 T01220096  RH  084%=      5-min Rain = 0
KTA1 100322Z 18007KT 12/10 A3014 RMK A01 T01230097  RH  084%=      5-min Rain = 0
KTA1 100323Z 18007KT 12/10 A3014 RMK A01 T01230097  RH  084%=      5-min Rain = 0
KTA1 100324Z 19008KT 12/10 A3014 RMK A01 T01230097  RH  084%=      5-min Rain = 0
KTA1 100325Z 18007KT 12/10 A3014 RMK A01 T01230097  RH  084%=      5-min Rain = 0
KTA1 100326Z 19007KT 12/10 A3014 RMK A01 T01230097  RH  084%=      5-min Rain = 0
KTA1 100327Z 19007KT 12/10 A3014 RMK A01 T01230097  RH  084%=      5-min Rain = 0
KTA1 100328Z 19007KT 12/10 A3014 RMK A01 T01230097  RH  084%=      5-min Rain = 0
KTA1 100329Z 19007KT 12/10 A3014 RMK A01 T01230097  RH  084%=      5-min Rain = 0
KTA1 100330Z 19007KT 12/10 A3014 RMK A01 T01230097  RH  084%=      5-min Rain = 0
KTA1 100331Z 19007KT 12/10 A3014 RMK A01 T01220097  RH  084%=      5-min Rain = 0
KTA1 100332Z 19007KT 12/10 A3014 RMK A01 T01220097  RH  085%=      5-min Rain = 0
KTA1 100333Z 19007KT 12/10 A3014 RMK A01 T01210097  RH  085%=      5-min Rain = 0
KTA1 100334Z 19007KT 12/10 A3014 RMK A01 T01210097  RH  085%=      5-min Rain = 0
KTA1 100335Z 19006KT 12/10 A3014 RMK A01 T01210097  RH  085%=      5-min Rain = 0
KTA1 100336Z 19007KT 12/10 A3014 RMK A01 T01200097  RH  085%=      5-min Rain = 0
KTA1 100337Z 19006KT 12/10 A3014 RMK A01 T01200097  RH  086%=      5-min Rain = 0
KTA1 100338Z 19006KT 12/10 A3014 RMK A01 T01200097  RH  086%=      5-min Rain = 0
KTA1 100339Z 19006KT 12/10 A3014 RMK A01 T01200097  RH  086%=      5-min Rain = 0
KTA1 100340Z 19006KT 12/10 A3014 RMK A01 T01200097  RH  086%=      5-min Rain = 0
KTA1 100341Z 19006KT 12/10 A3014 RMK A01 T01200097  RH  086%=      5-min Rain = 0
KTA1 100342Z 19006KT 12/10 A3014 RMK A01 T01200096  RH  086%=      5-min Rain = 0
KTA1 100343Z 19006KT 12/10 A3014 RMK A01 T01190096  RH  086%=      5-min Rain = 0
KTA1 100344Z 19006KT 12/10 A3014 RMK A01 T01190096  RH  086%=      5-min Rain = 0
KTA1 100345Z 20006KT 12/10 A3014 RMK A01 T01180096  RH  086%=      5-min Rain = 0
KTA1 100346Z 20006KT 12/10 A3014 RMK A01 T01180096  RH  086%=      5-min Rain = 0
KTA1 100347Z 20006KT 12/10 A3014 RMK A01 T01180096  RH  086%=      5-min Rain = 0
KTA1 100348Z 20006KT 12/10 A3014 RMK A01 T01180096  RH  086%=      5-min Rain = 0
KTA1 100349Z 20006KT 12/10 A3014 RMK A01 T01180096  RH  086%=      5-min Rain = 0
KTA1 100350Z 20006KT 12/10 A3014 RMK A01 T01180096  RH  086%=      5-min Rain = 0
KTA1 100351Z 20006KT 12/10 A3014 RMK A01 T01180096  RH  086%=      5-min Rain = 0
KTA1 100352Z 20005KT 12/10 A3014 RMK A01 T01180096  RH  086%=      5-min Rain = 0
KTA1 100353Z 20005KT 12/10 A3014 RMK A01 T01180096  RH  086%=      5-min Rain = 0
KTA1 100354Z 21005KT 12/10 A3014 RMK A01 T01180096  RH  086%=      5-min Rain = 0
KTA1 100355Z 21005KT 12/10 A3014 RMK A01 T01180096  RH  086%=      5-min Rain = 0
KTA1 100356Z 21005KT 12/10 A3014 RMK A01 T01170096  RH  087%=      5-min Rain = 0
KTA1 100357Z 21005KT 12/10 A3014 RMK A01 T01180096  RH  087%=      5-min Rain = 0
KTA1 100358Z 21005KT 12/10 A3014 RMK A01 T01170096  RH  087%=      5-min Rain = 0
KTA1 100359Z 21005KT 12/10 A3014 RMK A01 T01170096  RH  087%=      5-min Rain = 0
KTA1 100400Z 21005KT 12/10 A3014 RMK A01 T01170096  RH  087%=      5-min Rain = 0
KTA1 100401Z 21006KT 12/10 A3014 RMK A01 T01170096  RH  087%=      5-min Rain = 0
KTA1 100402Z 21006KT 12/10 A3014 RMK A01 T01170096  RH  087%=      5-min Rain = 0
KTA1 100403Z 21005KT 12/10 A3014 RMK A01 T01170096  RH  087%=      5-min Rain = 0
KTA1 100404Z 20006KT 12/10 A3013 RMK A01 T01170096  RH  087%=      5-min Rain = 0
KTA1 100405Z 21006KT 12/10 A3013 RMK A01 T01170096  RH  087%=      5-min Rain = 0
KTA1 100406Z 20006KT 12/10 A3013 RMK A01 T01170096  RH  087%=      5-min Rain = 0
KTA1 100407Z 20006KT 12/10 A3014 RMK A01 T01180096  RH  086%=      5-min Rain = 0
KTA1 100408Z 20006KT 12/10 A3014 RMK A01 T01180096  RH  086%=      5-min Rain = 0
KTA1 100409Z 20006KT 12/10 A3014 RMK A01 T01190096  RH  086%=      5-min Rain = 0
KTA1 100410Z 20006KT 12/10 A3014 RMK A01 T01190096  RH  086%=      5-min Rain = 0
KTA1 100411Z 20006KT 12/10 A3014 RMK A01 T01190096  RH  086%=      5-min Rain = 0
KTA1 100412Z 20006KT 12/10 A3014 RMK A01 T01190096  RH  086%=      5-min Rain = 0
KTA1 100413Z 20006KT 12/10 A3014 RMK A01 T01190096  RH  086%=      5-min Rain = 0
KTA1 100414Z 21006KT 12/10 A3014 RMK A01 T01190096  RH  086%=      5-min Rain = 0
KTA1 100415Z 21006KT 12/10 A3014 RMK A01 T01190097  RH  086%=      5-min Rain = 0
KTA1 100416Z 20006KT 12/10 A3014 RMK A01 T01190096  RH  086%=      5-min Rain = 0
KTA1 100417Z 21006KT 12/10 A3014 RMK A01 T01190096  RH  086%=      5-min Rain = 0
KTA1 100418Z 20006KT 12/10 A3014 RMK A01 T01190096  RH  086%=      5-min Rain = 0
KTA1 100419Z 21006KT 12/10 A3014 RMK A01 T01180096  RH  086%=      5-min Rain = 0
KTA1 100420Z 20006KT 12/10 A3014 RMK A01 T01180096  RH  086%=      5-min Rain = 0
KTA1 100421Z 20007KT 12/10 A3014 RMK A01 T01190097  RH  086%=      5-min Rain = 0
KTA1 100422Z 20007KT 12/10 A3014 RMK A01 T01180096  RH  086%=      5-min Rain = 0
KTA1 100423Z 20006KT 12/10 A3013 RMK A01 T01180096  RH  086%=      5-min Rain = 0
KTA1 100424Z 20006KT 12/10 A3013 RMK A01 T01180096  RH  086%=      5-min Rain = 0
KTA1 100425Z 20007KT 12/10 A3013 RMK A01 T01190097  RH  086%=      5-min Rain = 0
KTA1 100426Z 20006KT 12/10 A3013 RMK A01 T01180097  RH  087%=      5-min Rain = 0
KTA1 100427Z 20006KT 12/10 A3013 RMK A01 T01180097  RH  087%=      5-min Rain = 0
KTA1 100428Z 20006KT 12/10 A3013 RMK A01 T01180097  RH  087%=      5-min Rain = 0
KTA1 100429Z 20006KT 12/10 A3013 RMK A01 T01180097  RH  087%=      5-min Rain = 0
KTA1 100430Z 20006KT 12/10 A3013 RMK A01 T01190097  RH  087%=      5-min Rain = 0
KTA1 100431Z 20006KT 12/10 A3013 RMK A01 T01190097  RH  087%=      5-min Rain = 0
KTA1 100432Z 20006KT 12/10 A3013 RMK A01 T01190098  RH  087%=      5-min Rain = 0
KTA1 100433Z 20006KT 12/10 A3013 RMK A01 T01190098  RH  087%=      5-min Rain = 0
KTA1 100434Z 20006KT 12/10 A3013 RMK A01 T01200098  RH  087%=      5-min Rain = 0
KTA1 100435Z 20006KT 12/10 A3013 RMK A01 T01200098  RH  087%=      5-min Rain = 0
KTA1 100436Z 20006KT 12/10 A3014 RMK A01 T01200099  RH  087%=      5-min Rain = 0
KTA1 100437Z 20006KT 12/10 A3014 RMK A01 T01200099  RH  087%=      5-min Rain = 0
KTA1 100438Z 20006KT 12/10 A3013 RMK A01 T01200099  RH  087%=      5-min Rain = 0
KTA1 100439Z 20006KT 12/10 A3013 RMK A01 T01200099  RH  087%=      5-min Rain = 0
KTA1 100440Z 20006KT 12/10 A3013 RMK A01 T01200099  RH  087%=      5-min Rain = 0
KTA1 100441Z 20006KT 12/10 A3013 RMK A01 T01210099  RH  087%=      5-min Rain = 0
KTA1 100442Z 20006KT 12/10 A3013 RMK A01 T01210099  RH  087%=      5-min Rain = 0
KTA1 100443Z 20006KT 12/10 A3013 RMK A01 T01210099  RH  087%=      5-min Rain = 0
KTA1 100444Z 20006KT 12/10 A3013 RMK A01 T01200099  RH  087%=      5-min Rain = 0
KTA1 100445Z 20006KT 12/10 A3013 RMK A01 T01200099  RH  087%=      5-min Rain = 0
KTA1 100446Z 20006KT 12/10 A3013 RMK A01 T01200100  RH  087%=      5-min Rain = 0
KTA1 100447Z 20006KT 12/10 A3013 RMK A01 T01200099  RH  087%=      5-min Rain = 0
KTA1 100448Z 20006KT 12/10 A3013 RMK A01 T01200100  RH  087%=      5-min Rain = 0
KTA1 100449Z 20006KT 12/10 A3013 RMK A01 T01200100  RH  088%=      5-min Rain = 0
KTA1 100450Z 20006KT 12/10 A3013 RMK A01 T01200100  RH  088%=      5-min Rain = 0
KTA1 100451Z 20007KT 12/10 A3013 RMK A01 T01210100  RH  087%=      5-min Rain = 0
KTA1 100452Z 20006KT 12/10 A3013 RMK A01 T01210100  RH  087%=      5-min Rain = 0
KTA1 100453Z 20006KT 12/10 A3013 RMK A01 T01210100  RH  087%=      5-min Rain = 0
KTA1 100454Z 20007KT 12/10 A3013 RMK A01 T01210101  RH  087%=      5-min Rain = 0
KTA1 100455Z 20006KT 12/10 A3013 RMK A01 T01210101  RH  087%=      5-min Rain = 0
KTA1 100456Z 20007KT 12/10 A3013 RMK A01 T01220101  RH  087%=      5-min Rain = 0
KTA1 100457Z 20007KT 12/10 A3013 RMK A01 T01220101  RH  087%=      5-min Rain = 0
KTA1 100458Z 20007KT 12/10 A3013 RMK A01 T01220101  RH  087%=      5-min Rain = 0
KTA1 100459Z 20007KT 12/10 A3013 RMK A01 T01220101  RH  087%=      5-min Rain = 0
KTA1 100500Z 20007KT 12/10 A3013 RMK A01 T01220101  RH  087%=      5-min Rain = 0
KTA1 100501Z 20007KT 12/10 A3013 RMK A01 T01220101  RH  087%=      5-min Rain = 0
KTA1 100502Z 21007KT 12/10 A3013 RMK A01 T01220101  RH  087%=      5-min Rain = 0
KTA1 100503Z 21007KT 12/10 A3013 RMK A01 T01220101  RH  087%=      5-min Rain = 0
KTA1 100504Z 21007KT 12/10 A3013 RMK A01 T01220101  RH  087%=      5-min Rain = 0
KTA1 100505Z 21007KT 12/10 A3013 RMK A01 T01230101  RH  087%=      5-min Rain = 0
KTA1 100506Z 21007KT 12/10 A3013 RMK A01 T01220101  RH  087%=      5-min Rain = 0
KTA1 100507Z 21007KT 12/10 A3013 RMK A01 T01230101  RH  087%=      5-min Rain = 0
KTA1 100508Z 21007KT 12/10 A3013 RMK A01 T01230101  RH  087%=      5-min Rain = 0
KTA1 100509Z 21007KT 12/10 A3013 RMK A01 T01220101  RH  087%=      5-min Rain = 0
KTA1 100510Z 21007KT 12/10 A3013 RMK A01 T01220101  RH  087%=      5-min Rain = 0
KTA1 100511Z 21007KT 12/10 A3013 RMK A01 T01230101  RH  087%=      5-min Rain = 0
KTA1 100512Z 21007KT 12/10 A3013 RMK A01 T01220101  RH  087%=      5-min Rain = 0
KTA1 100513Z 20008KT 12/10 A3013 RMK A01 T01220100  RH  087%=      5-min Rain = 0
KTA1 100514Z 20008KT 12/10 A3013 RMK A01 T01220101  RH  087%=      5-min Rain = 0
KTA1 100515Z 20007KT 12/10 A3013 RMK A01 T01210100  RH  087%=      5-min Rain = 0
KTA1 100516Z 20007KT 12/10 A3013 RMK A01 T01220101  RH  087%=      5-min Rain = 0
KTA1 100517Z 20007KT 12/10 A3013 RMK A01 T01220101  RH  087%=      5-min Rain = 0
KTA1 100518Z 20007KT 12/10 A3013 RMK A01 T01220101  RH  087%=      5-min Rain = 0
KTA1 100519Z 20007KT 12/10 A3013 RMK A01 T01210101  RH  087%=      5-min Rain = 0
KTA1 100520Z 20007KT 12/10 A3013 RMK A01 T01220101  RH  087%=      5-min Rain = 0
KTA1 100521Z 20007KT 12/10 A3013 RMK A01 T01220101  RH  087%=      5-min Rain = 0
KTA1 100522Z 20007KT 12/10 A3013 RMK A01 T01220101  RH  087%=      5-min Rain = 0
KTA1 100523Z 20007KT 12/10 A3013 RMK A01 T01220101  RH  087%=      5-min Rain = 0
KTA1 100524Z 20007KT 12/10 A3013 RMK A01 T01220101  RH  087%=      5-min Rain = 0
KTA1 100525Z 20007KT 12/10 A3013 RMK A01 T01210101  RH  087%=      5-min Rain = 0
KTA1 100526Z 20007KT 12/10 A3013 RMK A01 T01210101  RH  087%=      5-min Rain = 0
KTA1 100527Z 20008KT 12/10 A3013 RMK A01 T01210101  RH  088%=      5-min Rain = 0
KTA1 100528Z 20008KT 12/10 A3013 RMK A01 T01210101  RH  088%=      5-min Rain = 0
KTA1 100529Z 20007KT 12/10 A3013 RMK A01 T01210101  RH  088%=      5-min Rain = 0
KTA1 100530Z 20008KT 12/10 A3013 RMK A01 T01210101  RH  088%=      5-min Rain = 0
KTA1 100531Z 19007KT 12/10 A3013 RMK A01 T01210101  RH  088%=      5-min Rain = 0
KTA1 100532Z 20007KT 12/10 A3013 RMK A01 T01210101  RH  088%=      5-min Rain = 0
KTA1 100533Z 20007KT 12/10 A3013 RMK A01 T01210102  RH  088%=      5-min Rain = 0
KTA1 100534Z 19007KT 12/10 A3013 RMK A01 T01210101  RH  088%=      5-min Rain = 0
KTA1 100535Z 20007KT 12/10 A3013 RMK A01 T01210102  RH  088%=      5-min Rain = 0
KTA1 100536Z 19008KT 12/10 A3012 RMK A01 T01210102  RH  088%=      5-min Rain = 0
KTA1 100537Z 20008KT 12/10 A3012 RMK A01 T01220103  RH  088%=      5-min Rain = 0
KTA1 100538Z 19008KT 12/10 A3012 RMK A01 T01220103  RH  088%=      5-min Rain = 0
KTA1 100539Z 19008KT 12/10 A3012 RMK A01 T01230103  RH  088%=      5-min Rain = 0
KTA1 100540Z 20008KT 12/10 A3012 RMK A01 T01240103  RH  087%=      5-min Rain = 0
KTA1 100541Z 19008KT 12/10 A3012 RMK A01 T01240103  RH  087%=      5-min Rain = 0
KTA1 100542Z 19008KT 12/10 A3012 RMK A01 T01240103  RH  087%=      5-min Rain = 0
KTA1 100543Z 19008KT 12/10 A3012 RMK A01 T01230103  RH  087%=      5-min Rain = 0
KTA1 100544Z 19008KT 12/10 A3012 RMK A01 T01230103  RH  087%=      5-min Rain = 0
KTA1 100545Z 19008KT 12/10 A3012 RMK A01 T01230102  RH  087%=      5-min Rain = 0
KTA1 100546Z 19008KT 12/10 A3012 RMK A01 T01220102  RH  087%=      5-min Rain = 0
KTA1 100547Z 19008KT 12/10 A3012 RMK A01 T01220102  RH  087%=      5-min Rain = 0
KTA1 100548Z 19009KT 12/10 A3012 RMK A01 T01210101  RH  088%=      5-min Rain = 0
KTA1 100549Z 19008KT 12/10 A3012 RMK A01 T01200101  RH  088%=      5-min Rain = 0
KTA1 100550Z 19007KT 12/10 A3012 RMK A01 T01190101  RH  088%=      5-min Rain = 0
KTA1 100551Z 19007KT 12/10 A3012 RMK A01 T01190100  RH  088%=      5-min Rain = 0
KTA1 100552Z 19008KT 12/10 A3012 RMK A01 T01180100  RH  089%=      5-min Rain = 0
KTA1 100553Z 19008KT 12/10 A3012 RMK A01 T01180100  RH  089%=      5-min Rain = 0
KTA1 100554Z 19007KT 12/10 A3012 RMK A01 T01170100  RH  089%=      5-min Rain = 0
KTA1 100555Z 19007KT 12/10 A3012 RMK A01 T01160100  RH  090%=      5-min Rain = 0
KTA1 100556Z 19008KT 12/10 A3012 RMK A01 T01160100  RH  090%=      5-min Rain = 0
KTA1 100557Z 19007KT 12/10 A3012 RMK A01 T01160100  RH  090%=      5-min Rain = 0
KTA1 100558Z 19007KT 12/10 A3012 RMK A01 T01160101  RH  090%=      5-min Rain = 0
KTA1 100559Z 19007KT 12/10 A3012 RMK A01 T01160100  RH  090%=      5-min Rain = 0

Page generated in 0.0731 seconds.